FW4143 Weather Reports


time (UTC)temp
C
wind
direction
speed
KPH
gust
KPH
rain 1hr
cm
rain 24hr
cm
rain mn
cm
humidity
%
barometer
mb
20260508075505 17 184 3.2 9.7 0.00 0.00 0.00 19 1014.5
20260508075404 17 183 3.2 9.7 0.00 0.00 0.00 19 1014.5
20260508075308 17 180 3.2 9.7 0.00 0.00 0.00 19 1014.6
20260508075204 17 181 3.2 9.7 0.00 0.00 0.00 19 1014.5
20260508075104 17 183 3.2 9.7 0.00 0.00 0.00 19 1014.5
20260508075004 17 181 3.2 8.0 0.00 0.00 0.00 19 1014.6
20260508074904 17 182 3.2 8.0 0.00 0.00 0.00 19 1014.5
20260508074825 17 183 1.6 8.0 0.00 0.00 0.00 19 1014.6
20260508074704 17 186 1.6 8.0 0.00 0.00 0.00 19 1014.5
20260508074604 17 188 1.6 8.0 0.00 0.00 0.00 19 1014.5
20260508074525 17 186 1.6 8.0 0.00 0.00 0.00 19 1014.4
20260508074404 17 186 1.6 8.0 0.00 0.00 0.00 19 1014.4
20260508074304 17 184 1.6 8.0 0.00 0.00 0.00 19 1014.4
20260508074225 17 184 1.6 8.0 0.00 0.00 0.00 19 1014.3
20260508074104 17 183 1.6 8.0 0.00 0.00 0.00 19 1014.4
20260508074004 17 179 1.6 8.0 0.00 0.00 0.00 19 1014.4
20260508073904 17 179 1.6 8.0 0.00 0.00 0.00 19 1014.3
20260508073804 17 184 3.2 8.0 0.00 0.00 0.00 19 1014.3
20260508073704 17 184 3.2 8.0 0.00 0.00 0.00 19 1014.4
20260508073604 17 183 1.6 8.0 0.00 0.00 0.00 19 1014.4
20260508073504 17 185 1.6 8.0 0.00 0.00 0.00 18 1014.4
20260508073404 17 185 1.6 8.0 0.00 0.00 0.00 18 1014.5
20260508073304 17 187 1.6 8.0 0.00 0.00 0.00 19 1014.4
20260508073204 17 188 1.6 8.0 0.00 0.00 0.00 19 1014.4
20260508073104 17 188 1.6 8.0 0.00 0.00 0.00 18 1014.5
20260508073004 17 191 1.6 8.0 0.00 0.00 0.00 18 1014.5
20260508072925 17 195 0.0 8.0 0.00 0.00 0.00 19 1014.5
20260508072805 17 200 0.0 8.0 0.00 0.00 0.00 18 1014.5
20260508072705 17 192 0.0 4.8 0.00 0.00 0.00 18 1014.5
20260508072604 17 192 0.0 4.8 0.00 0.00 0.00 18 1014.5
20260508072504 17 192 0.0 4.8 0.00 0.00 0.00 18 1014.4
20260508072405 17 192 0.0 4.8 0.00 0.00 0.00 18 1014.4
20260508072307 17 192 0.0 4.8 0.00 0.00 0.00 18 1014.4
20260508072204 17 0 0.0 0.0 0.00 0.00 0.00 17 1014.3
20260508072104 17 0 0.0 0.0 0.00 0.00 0.00 17 1014.3
20260508072005 17 0 0.0 0.0 0.00 0.00 0.00 16 1014.3
20260508071904 17 0 0.0 0.0 0.00 0.00 0.00 16 1014.3
20260508071804 17 0 0.0 0.0 0.00 0.00 0.00 16 1014.4
20260508071725 17 0 0.0 0.0 0.00 0.00 0.00 16 1014.4
20260508071604 17 170 0.0 4.8 0.00 0.00 0.00 16 1014.5
20260508071525 17 170 0.0 4.8 0.00 0.00 0.00 15 1014.6
20260508071404 17 170 0.0 4.8 0.00 0.00 0.00 15 1014.5
20260508071304 17 170 0.0 4.8 0.00 0.00 0.00 14 1014.6
20260508071204 17 170 0.0 4.8 0.00 0.00 0.00 14 1014.5
20260508071104 17 167 1.6 8.0 0.00 0.00 0.00 14 1014.5
20260508071004 17 166 1.6 8.0 0.00 0.00 0.00 14 1014.6
20260508070904 17 164 1.6 8.0 0.00 0.00 0.00 13 1014.7
20260508070804 17 163 1.6 8.0 0.00 0.00 0.00 13 1014.8
20260508070704 17 162 1.6 8.0 0.00 0.00 0.00 13 1014.9
20260508070604 17 161 1.6 8.0 0.00 0.00 0.00 13 1014.9
20260508070504 17 160 1.6 8.0 0.00 0.00 0.00 12 1015.0
20260508070404 17 160 1.6 8.0 0.00 0.00 0.00 12 1015.0
20260508070304 17 160 1.6 8.0 0.00 0.00 0.00 11 1015.1
20260508070204 17 156 0.0 8.0 0.00 0.00 0.00 10 1015.1
20260508070104 17 153 0.0 6.4 0.00 0.00 0.00 11 1015.1
20260508070005 17 152 0.0 6.4 0.00 0.00 0.00 10 1015.1
20260508065904 17 152 0.0 3.2 0.00 0.00 0.00 9 1015.1
20260508065804 17 0 0.0 0.0 0.00 0.00 0.00 10 1015.0
20260508065725 17 0 0.0 0.0 0.00 0.00 0.00 10 1015.1
20260508065604 17 0 0.0 0.0 0.00 0.00 0.00 9 1015.0
20260508065504 17 0 0.0 0.0 0.00 0.00 0.00 10 1015.0
20260508065405 17 0 0.0 0.0 0.00 0.00 0.00 10 1015.0
20260508065307 17 0 0.0 0.0 0.00 0.00 0.00 10 1015.0
20260508065204 17 0 0.0 0.0 0.00 0.00 0.00 10 1015.1
20260508065104 16 151 0.0 3.2 0.00 0.00 0.00 9 1015.1
20260508065004 17 151 0.0 4.8 0.00 0.00 0.00 8 1015.2
20260508064904 16 151 0.0 4.8 0.00 0.00 0.00 8 1015.1
20260508064825 16 151 0.0 4.8 0.00 0.00 0.00 8 1015.1
20260508064705 16 151 0.0 4.8 0.00 0.00 0.00 8 1015.1
20260508064604 16 151 0.0 4.8 0.00 0.00 0.00 7 1015.2
20260508064504 16 151 0.0 4.8 0.00 0.00 0.00 7 1015.2
20260508064404 16 151 0.0 4.8 0.00 0.00 0.00 7 1015.2
20260508064304 16 150 0.0 4.8 0.00 0.00 0.00 7 1015.2
20260508064204 16 150 0.0 4.8 0.00 0.00 0.00 7 1015.3
20260508064104 16 150 0.0 4.8 0.00 0.00 0.00 6 1015.3
20260508064004 16 150 0.0 4.8 0.00 0.00 0.00 6 1015.4
20260508063904 16 150 0.0 4.8 0.00 0.00 0.00 6 1015.4
20260508063804 16 150 0.0 4.8 0.00 0.00 0.00 5 1015.5
20260508063704 16 150 0.0 4.8 0.00 0.00 0.00 5 1015.5
20260508063604 16 150 0.0 4.8 0.00 0.00 0.00 5 1015.6
20260508063504 17 150 0.0 4.8 0.00 0.00 0.00 5 1015.6
20260508063404 16 149 0.0 4.8 0.00 0.00 0.00 5 1015.7
20260508063304 16 148 0.0 4.8 0.00 0.00 0.00 5 1015.7
20260508063204 16 146 0.0 4.8 0.00 0.00 0.00 5 1015.7
20260508063104 16 146 0.0 4.8 0.00 0.00 0.00 6 1015.7
20260508063004 16 146 0.0 4.8 0.00 0.00 0.00 5 1015.8
20260508062904 16 146 0.0 4.8 0.00 0.00 0.00 5 1015.8
20260508062804 16 146 0.0 4.8 0.00 0.00 0.00 5 1015.8
20260508062704 16 146 0.0 4.8 0.00 0.00 0.00 5 1015.9
20260508062604 16 146 0.0 4.8 0.00 0.00 0.00 4 1015.9
20260508062504 16 146 0.0 4.8 0.00 0.00 0.00 5 1015.9
20260508062404 16 146 0.0 4.8 0.00 0.00 0.00 5 1015.9
20260508062306 16 146 0.0 4.8 0.00 0.00 0.00 5 1015.9
20260508062205 16 146 0.0 1.6 0.00 0.00 0.00 4 1015.8
20260508062104 16 146 0.0 1.6 0.00 0.00 0.00 3 1015.8
20260508062004 16 146 0.0 1.6 0.00 0.00 0.00 4 1015.7
20260508061904 16 146 0.0 1.6 0.00 0.00 0.00 4 1015.6
20260508061825 16 146 0.0 1.6 0.00 0.00 0.00 5 1015.5
20260508061704 16 0 0.0 0.0 0.00 0.00 0.00 5 1015.4
20260508061604 16 0 0.0 0.0 0.00 0.00 0.00 5 1015.3
20260508061504 16 146 0.0 1.6 0.00 0.00 0.00 5 1015.4
20260508061404 16 146 0.0 1.6 0.00 0.00 0.00 6 1015.3
20260508061304 16 146 0.0 1.6 0.00 0.00 0.00 6 1015.2
20260508061204 16 146 0.0 1.6 0.00 0.00 0.00 6 1015.3
20260508061104 16 146 0.0 1.6 0.00 0.00 0.00 7 1015.2
20260508061004 16 146 0.0 1.6 0.00 0.00 0.00 7 1015.2
20260508060904 16 146 0.0 1.6 0.00 0.00 0.00 7 1015.2
20260508060804 16 146 0.0 1.6 0.00 0.00 0.00 7 1015.2
20260508060704 16 146 0.0 1.6 0.00 0.00 0.00 7 1015.2
20260508060604 16 146 0.0 1.6 0.00 0.00 0.00 7 1015.2
20260508060504 16 146 0.0 1.6 0.00 0.00 0.00 7 1015.2
20260508060404 16 146 0.0 1.6 0.00 0.00 0.00 8 1015.2
20260508060304 16 146 0.0 1.6 0.00 0.00 0.00 8 1015.2
20260508060204 16 146 0.0 1.6 0.00 0.00 0.00 8 1015.3
20260508060104 16 0 0.0 0.0 0.00 0.00 0.00 8 1015.3
20260508060005 16 0 0.0 0.0 0.00 0.00 0.00 8 1015.4
20260508055904 16 0 0.0 0.0 0.00 0.00 0.00 8 1015.4
20260508055804 16 0 0.0 0.0 0.00 0.00 0.00 8 1015.4
20260508055704 16 0 0.0 0.0 0.00 0.00 0.00 8 1015.5
20260508055604 16 0 0.0 0.0 0.00 0.00 0.00 8 1015.4
20260508055504 16 0 0.0 0.0 0.00 0.00 0.00 8 1015.4
20260508055404 16 0 0.0 0.0 0.00 0.00 0.00 9 1015.4
20260508055326 16 0 0.0 0.0 0.00 0.00 0.00 8 1015.4
20260508055204 16 0 0.0 0.0 0.00 0.00 0.00 8 1015.4
20260508055104 16 0 0.0 0.0 0.00 0.00 0.00 8 1015.4
20260508055004 16 0 0.0 0.0 0.00 0.00 0.00 9 1015.5
20260508054904 16 0 0.0 0.0 0.00 0.00 0.00 9 1015.6
20260508054804 16 0 0.0 0.0 0.00 0.00 0.00 9 1015.6
20260508054704 16 0 0.0 0.0 0.00 0.00 0.00 9 1015.7
20260508054604 16 0 0.0 0.0 0.00 0.00 0.00 10 1015.7
20260508054504 17 120 0.0 1.6 0.00 0.00 0.00 10 1015.8
20260508054404 17 120 0.0 1.6 0.00 0.00 0.00 10 1015.7
20260508054304 17 120 0.0 1.6 0.00 0.00 0.00 10 1015.7
20260508054204 17 120 0.0 1.6 0.00 0.00 0.00 11 1015.7
20260508054125 17 120 0.0 1.6 0.00 0.00 0.00 11 1015.7
20260508054004 17 120 0.0 1.6 0.00 0.00 0.00 11 1015.6
20260508053904 17 120 0.0 1.6 0.00 0.00 0.00 11 1015.6
20260508053804 17 120 0.0 1.6 0.00 0.00 0.00 12 1015.6
20260508053704 17 120 0.0 1.6 0.00 0.00 0.00 12 1015.7
20260508053625 17 120 0.0 1.6 0.00 0.00 0.00 12 1015.7
20260508053504 17 0 0.0 0.0 0.00 0.00 0.00 12 1015.7
20260508053404 17 180 0.0 8.0 0.00 0.00 0.00 13 1015.7
20260508053304 17 180 0.0 8.0 0.00 0.00 0.00 13 1015.7
20260508053204 17 180 0.0 8.0 0.00 0.00 0.00 13 1015.6
20260508053125 17 180 0.0 8.0 0.00 0.00 0.00 13 1015.4
20260508053004 17 180 0.0 8.0 0.00 0.00 0.00 13 1015.3
20260508052904 17 180 0.0 8.0 0.00 0.00 0.00 13 1015.1
20260508052804 17 180 0.0 8.0 0.00 0.00 0.00 14 1015.0
20260508052704 17 180 0.0 8.0 0.00 0.00 0.00 14 1014.8
20260508052604 17 180 0.0 8.0 0.00 0.00 0.00 14 1014.7
20260508052504 17 180 0.0 8.0 0.00 0.00 0.00 14 1014.6
20260508052404 17 0 0.0 0.0 0.00 0.00 0.00 14 1014.6
20260508052307 17 0 0.0 0.0 0.00 0.00 0.00 14 1014.6
20260508052204 17 0 0.0 0.0 0.00 0.00 0.00 14 1014.7
20260508052125 17 0 0.0 0.0 0.00 0.00 0.00 14 1014.7
20260508052004 17 0 0.0 0.0 0.00 0.00 0.00 14 1014.8
20260508051904 17 0 0.0 0.0 0.00 0.00 0.00 14 1014.8
20260508051825 17 0 0.0 0.0 0.00 0.00 0.00 14 1014.9
20260508051704 17 0 0.0 0.0 0.00 0.00 0.00 14 1014.9
20260508051626 17 0 0.0 0.0 0.00 0.00 0.00 14 1014.9
20260508051504 17 0 0.0 0.0 0.00 0.00 0.00 14 1015.0
20260508051404 17 0 0.0 0.0 0.00 0.00 0.00 14 1015.1
20260508051304 17 0 0.0 0.0 0.00 0.00 0.00 14 1015.1
20260508051204 17 0 0.0 0.0 0.00 0.00 0.00 14 1015.2
20260508051104 17 0 0.0 0.0 0.00 0.00 0.00 14 1015.3
20260508051025 17 0 0.0 0.0 0.00 0.00 0.00 14 1015.3
20260508050904 17 0 0.0 0.0 0.00 0.00 0.00 14 1015.4
20260508050804 17 0 0.0 0.0 0.00 0.00 0.00 13 1015.4
20260508050704 17 139 0.0 1.6 0.00 0.00 0.00 12 1015.5
20260508050604 17 139 0.0 1.6 0.00 0.00 0.00 12 1015.6
20260508050525 17 139 0.0 1.6 0.00 0.00 0.00 13 1015.7
20260508050404 17 139 0.0 1.6 0.00 0.00 0.00 13 1015.8
20260508050304 17 139 0.0 1.6 0.00 0.00 0.00 13 1015.9
20260508050204 17 139 0.0 1.6 0.00 0.00 0.00 13 1015.9
20260508050104 17 139 0.0 1.6 0.00 0.00 0.00 13 1016.0
20260508050004 17 139 0.0 1.6 0.00 0.00 0.00 13 1016.0
20260508045904 17 139 0.0 1.6 0.00 0.00 0.00 14 1016.0
20260508045804 17 139 0.0 1.6 0.00 0.00 0.00 14 1016.0
20260508045704 17 0 0.0 0.0 0.00 0.00 0.00 14 1016.0
20260508045604 17 0 0.0 0.0 0.00 0.00 0.00 15 1016.0
20260508045504 17 0 0.0 0.0 0.00 0.00 0.00 15 1016.0
20260508045404 17 0 0.0 0.0 0.00 0.00 0.00 16 1015.9
20260508045307 17 0 0.0 0.0 0.00 0.00 0.00 16 1015.8
20260508045204 17 0 0.0 0.0 0.00 0.00 0.00 17 1015.7
20260508045104 17 0 0.0 0.0 0.00 0.00 0.00 18 1015.5
20260508045004 17 0 0.0 0.0 0.00 0.00 0.00 18 1015.4
20260508044904 17 0 0.0 0.0 0.00 0.00 0.00 18 1015.3
20260508044804 17 0 0.0 0.0 0.00 0.00 0.00 19 1015.2
20260508044725 17 0 0.0 0.0 0.00 0.00 0.00 19 1015.1
20260508044604 17 0 0.0 0.0 0.00 0.00 0.00 19 1015.1
20260508044504 17 0 0.0 0.0 0.00 0.00 0.00 20 1015.1
20260508044404 17 0 0.0 0.0 0.00 0.00 0.00 20 1015.1
20260508044304 17 0 0.0 0.0 0.00 0.00 0.00 20 1015.1
20260508044225 17 0 0.0 0.0 0.00 0.00 0.00 20 1015.1
20260508044104 17 0 0.0 0.0 0.00 0.00 0.00 21 1015.1
20260508044004 17 0 0.0 0.0 0.00 0.00 0.00 20 1015.1
20260508043904 17 0 0.0 0.0 0.00 0.00 0.00 20 1015.1
20260508043825 17 0 0.0 0.0 0.00 0.00 0.00 20 1015.1
20260508043704 17 0 0.0 0.0 0.00 0.00 0.00 21 1015.1
20260508043604 17 0 0.0 0.0 0.00 0.00 0.00 21 1015.1
20260508043504 17 0 0.0 0.0 0.00 0.00 0.00 21 1015.1
20260508043404 17 0 0.0 0.0 0.00 0.00 0.00 21 1015.2
20260508043304 17 0 0.0 0.0 0.00 0.00 0.00 20 1015.2
20260508043204 17 0 0.0 0.0 0.00 0.00 0.00 21 1015.3
20260508043104 17 0 0.0 0.0 0.00 0.00 0.00 21 1015.4
20260508043004 17 0 0.0 0.0 0.00 0.00 0.00 21 1015.4
20260508042904 17 0 0.0 0.0 0.00 0.00 0.00 21 1015.5
20260508042805 17 0 0.0 0.0 0.00 0.00 0.00 21 1015.5
20260508042704 17 0 0.0 0.0 0.00 0.00 0.00 21 1015.5
20260508042604 17 0 0.0 0.0 0.00 0.00 0.00 21 1015.5
20260508042504 17 0 0.0 0.0 0.00 0.00 0.00 21 1015.4
20260508042404 17 0 0.0 0.0 0.00 0.00 0.00 22 1015.5
20260508042307 17 0 0.0 0.0 0.00 0.00 0.00 22 1015.5
20260508042204 17 0 0.0 0.0 0.00 0.00 0.00 22 1015.5
20260508042104 17 0 0.0 0.0 0.00 0.00 0.00 22 1015.5
20260508042004 17 0 0.0 0.0 0.00 0.00 0.00 22 1015.5
20260508041904 17 0 0.0 0.0 0.00 0.00 0.00 22 1015.7
20260508041804 17 0 0.0 0.0 0.00 0.00 0.00 22 1015.7
20260508041705 17 0 0.0 0.0 0.00 0.00 0.00 21 1015.8
20260508041604 17 0 0.0 0.0 0.00 0.00 0.00 21 1015.8
20260508041505 17 0 0.0 0.0 0.00 0.00 0.00 21 1015.8
20260508041404 17 0 0.0 0.0 0.00 0.00 0.00 21 1015.9
20260508041304 17 0 0.0 0.0 0.00 0.00 0.00 21 1015.9
20260508041204 17 0 0.0 0.0 0.00 0.00 0.00 21 1015.9
20260508041104 17 0 0.0 0.0 0.00 0.00 0.00 21 1015.9
20260508041004 17 0 0.0 0.0 0.00 0.00 0.00 21 1015.8
20260508040904 17 0 0.0 0.0 0.00 0.00 0.00 21 1015.8
20260508040804 17 0 0.0 0.0 0.00 0.00 0.00 21 1015.7
20260508040704 17 0 0.0 0.0 0.00 0.00 0.00 21 1015.7
20260508040625 17 0 0.0 0.0 0.00 0.00 0.00 21 1015.7
20260508040504 17 0 0.0 0.0 0.00 0.00 0.00 20 1015.7
20260508040425 17 0 0.0 0.0 0.00 0.00 0.00 20 1015.6
20260508040325 17 0 0.0 0.0 0.00 0.00 0.00 20 1015.6
20260508040204 17 0 0.0 0.0 0.00 0.00 0.00 20 1015.7
20260508040104 17 0 0.0 0.0 0.00 0.00 0.00 22 1015.6
20260508040005 17 0 0.0 0.0 0.00 0.00 0.00 22 1015.7
20260508035904 17 0 0.0 0.0 0.00 0.00 0.00 22 1015.7
20260508035825 17 0 0.0 0.0 0.00 0.00 0.00 22 1015.7
20260508035704 17 0 0.0 0.0 0.00 0.00 0.00 22 1015.7
20260508035604 17 0 0.0 0.0 0.00 0.00 0.00 23 1015.8
20260508035504 17 0 0.0 0.0 0.00 0.00 0.00 23 1015.8
20260508035404 17 0 0.0 0.0 0.00 0.00 0.00 24 1015.8
20260508035306 17 0 0.0 0.0 0.00 0.00 0.00 24 1015.9
20260508035204 17 0 0.0 0.0 0.00 0.00 0.00 24 1015.8
20260508035104 17 0 0.0 0.0 0.00 0.00 0.00 24 1015.9
20260508035004 17 0 0.0 0.0 0.00 0.00 0.00 24 1016.0
20260508034904 17 0 0.0 0.0 0.00 0.00 0.00 24 1016.0
20260508034804 17 0 0.0 0.0 0.00 0.00 0.00 24 1016.1
20260508034704 17 0 0.0 0.0 0.00 0.00 0.00 24 1016.2
20260508034604 17 0 0.0 0.0 0.00 0.00 0.00 24 1016.2
20260508034525 17 0 0.0 0.0 0.00 0.00 0.00 24 1016.3
20260508034404 17 0 0.0 0.0 0.00 0.00 0.00 24 1016.3
20260508034304 17 0 0.0 0.0 0.00 0.00 0.00 23 1016.4
20260508034204 17 0 0.0 0.0 0.00 0.00 0.00 22 1016.5
20260508034104 17 0 0.0 0.0 0.00 0.00 0.00 22 1016.6
20260508034004 17 0 0.0 0.0 0.00 0.00 0.00 22 1016.7
20260508033904 17 0 0.0 0.0 0.00 0.00 0.00 21 1016.7
20260508033804 17 0 0.0 0.0 0.00 0.00 0.00 21 1016.8
20260508033704 17 0 0.0 0.0 0.00 0.00 0.00 21 1016.8
20260508033604 17 0 0.0 0.0 0.00 0.00 0.00 21 1016.8
20260508033504 17 0 0.0 0.0 0.00 0.00 0.00 21 1016.7
20260508033404 17 0 0.0 0.0 0.00 0.00 0.00 21 1016.6
20260508033304 17 0 0.0 0.0 0.00 0.00 0.00 21 1016.6
20260508033204 17 0 0.0 0.0 0.00 0.00 0.00 21 1016.5
20260508033104 17 0 0.0 0.0 0.00 0.00 0.00 21 1016.5
20260508033004 17 0 0.0 0.0 0.00 0.00 0.00 21 1016.5
20260508032925 17 0 0.0 0.0 0.00 0.00 0.00 21 1016.5
20260508032804 17 0 0.0 0.0 0.00 0.00 0.00 21 1016.4
20260508032704 17 0 0.0 0.0 0.00 0.00 0.00 21 1016.4
20260508032604 17 0 0.0 0.0 0.00 0.00 0.00 22 1016.4
20260508032504 17 0 0.0 0.0 0.00 0.00 0.00 22 1016.4
20260508032404 17 0 0.0 0.0 0.00 0.00 0.00 22 1016.3
20260508032306 17 0 0.0 0.0 0.00 0.00 0.00 22 1016.3
20260508032204 17 0 0.0 0.0 0.00 0.00 0.00 22 1016.2
20260508032104 17 0 0.0 0.0 0.00 0.00 0.00 22 1016.2
20260508032004 17 0 0.0 0.0 0.00 0.00 0.00 22 1016.2
20260508031904 17 0 0.0 0.0 0.00 0.00 0.00 23 1016.2
20260508031825 17 0 0.0 0.0 0.00 0.00 0.00 22 1016.1
20260508031704 17 0 0.0 0.0 0.00 0.00 0.00 22 1016.0
20260508031604 17 0 0.0 0.0 0.00 0.00 0.00 23 1016.0
20260508031504 17 0 0.0 0.0 0.00 0.00 0.00 23 1015.9
20260508031404 17 0 0.0 0.0 0.00 0.00 0.00 23 1015.8
20260508031304 17 0 0.0 0.0 0.00 0.00 0.00 23 1015.7
20260508031204 17 0 0.0 0.0 0.00 0.00 0.00 23 1015.7
20260508031104 17 0 0.0 0.0 0.00 0.00 0.00 23 1015.7
20260508031004 17 0 0.0 0.0 0.00 0.00 0.00 23 1015.7
20260508030904 17 0 0.0 0.0 0.00 0.00 0.00 24 1015.6
20260508030825 17 0 0.0 0.0 0.00 0.00 0.00 24 1015.6
20260508030704 17 0 0.0 0.0 0.00 0.00 0.00 24 1015.5
20260508030625 17 0 0.0 0.0 0.00 0.00 0.00 24 1015.5
20260508030505 17 0 0.0 0.0 0.00 0.00 0.00 24 1015.5
20260508030404 17 0 0.0 0.0 0.00 0.00 0.00 25 1015.5
20260508030304 17 0 0.0 0.0 0.00 0.00 0.00 25 1015.6
20260508030204 17 0 0.0 0.0 0.00 0.00 0.00 25 1015.6
20260508030104 17 0 0.0 0.0 0.00 0.00 0.00 25 1015.6
20260508030004 17 0 0.0 0.0 0.00 0.00 0.00 25 1015.7
20260508025925 17 0 0.0 0.0 0.00 0.00 0.00 25 1015.7
20260508025804 17 0 0.0 0.0 0.00 0.00 0.00 25 1015.8
20260508025704 17 0 0.0 0.0 0.00 0.00 0.00 25 1015.8
20260508025604 17 0 0.0 0.0 0.00 0.00 0.00 25 1015.8
20260508025504 17 0 0.0 0.0 0.00 0.00 0.00 25 1015.8
20260508025404 17 0 0.0 0.0 0.00 0.00 0.00 26 1015.7
20260508025306 17 0 0.0 0.0 0.00 0.00 0.00 26 1015.7
20260508025225 17 0 0.0 0.0 0.00 0.00 0.00 26 1015.7
20260508025104 17 0 0.0 0.0 0.00 0.00 0.00 26 1015.7
20260508025004 17 0 0.0 0.0 0.00 0.00 0.00 26 1015.6
20260508024904 17 0 0.0 0.0 0.00 0.00 0.00 26 1015.6
20260508024804 17 0 0.0 0.0 0.00 0.00 0.00 26 1015.5
20260508024704 17 0 0.0 0.0 0.00 0.00 0.00 25 1015.4
20260508024604 17 0 0.0 0.0 0.00 0.00 0.00 25 1015.3
20260508024525 17 0 0.0 0.0 0.00 0.00 0.00 25 1015.2
20260508024404 17 0 0.0 0.0 0.00 0.00 0.00 25 1015.2
20260508024304 17 0 0.0 0.0 0.00 0.00 0.00 25 1015.1
20260508024204 17 0 0.0 0.0 0.00 0.00 0.00 25 1015.0
20260508024104 17 0 0.0 0.0 0.00 0.00 0.00 25 1015.0
20260508024004 17 0 0.0 0.0 0.00 0.00 0.00 25 1014.9
20260508023904 17 0 0.0 0.0 0.00 0.00 0.00 26 1014.7
20260508023804 17 0 0.0 0.0 0.00 0.00 0.00 26 1014.6
20260508023704 17 0 0.0 0.0 0.00 0.00 0.00 26 1014.4
20260508023605 17 0 0.0 0.0 0.00 0.00 0.00 26 1014.4
20260508023525 17 0 0.0 0.0 0.00 0.00 0.00 27 1014.3
20260508023404 17 0 0.0 0.0 0.00 0.00 0.00 28 1014.3
20260508023304 17 0 0.0 0.0 0.00 0.00 0.00 28 1014.3
20260508023225 17 0 0.0 0.0 0.00 0.00 0.00 28 1014.3
20260508023104 17 0 0.0 0.0 0.00 0.00 0.00 28 1014.2
20260508023004 17 0 0.0 0.0 0.00 0.00 0.00 29 1014.2
20260508022904 17 0 0.0 0.0 0.00 0.00 0.00 29 1014.2
20260508022804 17 0 0.0 0.0 0.00 0.00 0.00 30 1014.2
20260508022704 17 0 0.0 0.0 0.00 0.00 0.00 31 1014.2
20260508022626 17 0 0.0 0.0 0.00 0.00 0.00 31 1014.3
20260508022525 17 0 0.0 0.0 0.00 0.00 0.00 31 1014.3
20260508022404 17 0 0.0 0.0 0.00 0.00 0.00 31 1014.3
20260508022307 17 0 0.0 0.0 0.00 0.00 0.00 31 1014.3
20260508022204 17 0 0.0 0.0 0.00 0.00 0.00 32 1014.3
20260508022104 17 0 0.0 0.0 0.00 0.00 0.00 32 1014.3
20260508022005 17 0 0.0 0.0 0.00 0.00 0.00 32 1014.4
20260508021904 17 0 0.0 0.0 0.00 0.00 0.00 32 1014.4
20260508021804 17 202 1.6 9.7 0.00 0.00 0.00 32 1014.4
20260508021704 17 202 1.6 9.7 0.00 0.00 0.00 33 1014.4
20260508021604 17 202 1.6 9.7 0.00 0.00 0.00 32 1014.4
20260508021504 17 202 1.6 9.7 0.00 0.00 0.00 32 1014.4
20260508021425 17 202 1.6 9.7 0.00 0.00 0.00 32 1014.3
20260508021325 17 202 1.6 9.7 0.00 0.00 0.00 33 1014.3
20260508021204 17 202 1.6 9.7 0.00 0.00 0.00 33 1014.3
20260508021104 17 202 1.6 9.7 0.00 0.00 0.00 34 1014.3
20260508021004 17 202 1.6 9.7 0.00 0.00 0.00 34 1014.3
20260508020904 17 202 0.0 9.7 0.00 0.00 0.00 34 1014.3
20260508020825 17 200 0.0 9.7 0.00 0.00 0.00 34 1014.3
20260508020704 17 0 0.0 0.0 0.00 0.00 0.00 34 1014.2
20260508020604 17 0 0.0 0.0 0.00 0.00 0.00 34 1014.2
20260508020525 17 0 0.0 0.0 0.00 0.00 0.00 35 1014.2
20260508020404 17 0 0.0 0.0 0.00 0.00 0.00 34 1014.2
20260508020304 17 0 0.0 0.0 0.00 0.00 0.00 35 1014.3
20260508020204 17 0 0.0 0.0 0.00 0.00 0.00 35 1014.3
20260508020104 17 0 0.0 0.0 0.00 0.00 0.00 35 1014.3
20260508020025 17 0 0.0 0.0 0.00 0.00 0.00 35 1014.3
20260508015925 17 208 0.0 3.2 0.00 0.00 0.00 35 1014.2
20260508015804 17 208 0.0 3.2 0.00 0.00 0.00 35 1014.2
20260508015704 17 208 0.0 3.2 0.00 0.00 0.00 35 1014.2
20260508015604 17 208 0.0 3.2 0.00 0.00 0.00 35 1014.1
20260508015504 17 208 0.0 3.2 0.00 0.00 0.00 35 1014.0
20260508015404 17 208 0.0 3.2 0.00 0.00 0.00 35 1014.0
20260508015306 17 208 0.0 3.2 0.00 0.00 0.00 35 1014.0
20260508015204 17 208 0.0 3.2 0.00 0.00 0.00 36 1014.0
20260508015104 17 208 0.0 3.2 0.00 0.00 0.00 37 1014.1
20260508015004 17 208 0.0 3.2 0.00 0.00 0.00 37 1014.1
20260508014904 17 0 0.0 0.0 0.00 0.00 0.00 37 1014.1
20260508014804 17 0 0.0 0.0 0.00 0.00 0.00 38 1014.1
20260508014704 17 0 0.0 0.0 0.00 0.00 0.00 38 1014.1
20260508014625 17 0 0.0 0.0 0.00 0.00 0.00 39 1014.1
20260508014504 17 0 0.0 0.0 0.00 0.00 0.00 39 1014.0
20260508014404 17 0 0.0 0.0 0.00 0.00 0.00 40 1014.1
20260508014325 17 0 0.0 0.0 0.00 0.00 0.00 40 1014.0
20260508014225 17 0 0.0 0.0 0.00 0.00 0.00 40 1014.0
20260508014105 17 0 0.0 0.0 0.00 0.00 0.00 41 1014.0
20260508014004 17 0 0.0 0.0 0.00 0.00 0.00 41 1014.0
20260508013904 17 0 0.0 0.0 0.00 0.00 0.00 41 1014.0
20260508013804 17 0 0.0 0.0 0.00 0.00 0.00 42 1014.1
20260508013704 17 0 0.0 1.6 0.00 0.00 0.00 42 1014.2
20260508013604 17 0 0.0 1.6 0.00 0.00 0.00 42 1014.2
20260508013504 17 0 0.0 1.6 0.00 0.00 0.00 42 1014.3
20260508013404 17 0 0.0 1.6 0.00 0.00 0.00 43 1014.3
20260508013326 17 0 0.0 1.6 0.00 0.00 0.00 43 1014.4
20260508013204 17 0 0.0 1.6 0.00 0.00 0.00 43 1014.4
20260508013104 17 0 0.0 1.6 0.00 0.00 0.00 44 1014.4
20260508013005 17 0 0.0 1.6 0.00 0.00 0.00 44 1014.3
20260508012904 17 0 0.0 1.6 0.00 0.00 0.00 44 1014.2
20260508012804 17 0 0.0 1.6 0.00 0.00 0.00 45 1014.2
20260508012704 17 0 0.0 0.0 0.00 0.00 0.00 45 1014.3
20260508012604 17 0 0.0 0.0 0.00 0.00 0.00 45 1014.4
20260508012504 17 0 0.0 0.0 0.00 0.00 0.00 45 1014.6
20260508012404 17 0 0.0 0.0 0.00 0.00 0.00 45 1014.8
20260508012307 17 0 0.0 0.0 0.00 0.00 0.00 46 1014.9
20260508012225 17 0 0.0 0.0 0.00 0.00 0.00 46 1015.0
20260508012104 17 0 0.0 0.0 0.00 0.00 0.00 46 1015.1
20260508012025 17 0 0.0 0.0 0.00 0.00 0.00 46 1015.2
20260508011904 17 0 0.0 0.0 0.00 0.00 0.00 46 1015.2
20260508011825 17 0 0.0 0.0 0.00 0.00 0.00 46 1015.2
20260508011704 17 0 0.0 0.0 0.00 0.00 0.00 47 1015.1
20260508011604 17 0 0.0 0.0 0.00 0.00 0.00 47 1015.0
20260508011504 17 0 0.0 0.0 0.00 0.00 0.00 47 1014.8
20260508011404 17 0 0.0 0.0 0.00 0.00 0.00 47 1014.6
20260508011304 17 0 0.0 0.0 0.00 0.00 0.00 47 1014.5
20260508011204 17 0 0.0 0.0 0.00 0.00 0.00 48 1014.4
20260508011104 17 0 0.0 0.0 0.00 0.00 0.00 48 1014.4
20260508011004 17 0 0.0 0.0 0.00 0.00 0.00 48 1014.5
20260508010904 17 0 0.0 0.0 0.00 0.00 0.00 48 1014.5
20260508010804 17 0 0.0 0.0 0.00 0.00 0.00 48 1014.7
20260508010725 17 0 0.0 0.0 0.00 0.00 0.00 48 1014.8
20260508010604 17 0 0.0 0.0 0.00 0.00 0.00 48 1014.9
20260508010525 17 0 0.0 0.0 0.00 0.00 0.00 48 1014.9
20260508010404 17 0 0.0 0.0 0.00 0.00 0.00 49 1014.8
20260508010304 17 0 0.0 0.0 0.00 0.00 0.00 49 1014.6
20260508010204 17 0 0.0 0.0 0.00 0.00 0.00 49 1014.6
20260508010105 17 0 0.0 0.0 0.00 0.00 0.00 49 1014.5
20260508010004 17 0 0.0 0.0 0.00 0.00 0.00 49 1014.5
20260508005925 17 0 0.0 0.0 0.00 0.00 0.00 49 1014.5
20260508005804 17 0 0.0 0.0 0.00 0.00 0.00 49 1014.5
20260508005725 18 0 0.0 0.0 0.00 0.00 0.00 49 1014.6
20260508005604 18 0 0.0 0.0 0.00 0.00 0.00 49 1014.6
20260508005504 18 0 0.0 0.0 0.00 0.00 0.00 49 1014.7
20260508005404 18 0 0.0 0.0 0.00 0.00 0.00 50 1014.8
20260508005306 18 0 0.0 0.0 0.00 0.00 0.00 49 1014.8
20260508005204 18 0 0.0 0.0 0.00 0.00 0.00 50 1014.9
20260508005104 18 212 0.0 3.2 0.00 0.00 0.00 50 1015.1
20260508005004 18 225 0.0 3.2 0.00 0.00 0.00 50 1015.1
20260508004904 18 250 0.0 12.9 0.00 0.00 0.00 50 1015.1
20260508004825 18 250 0.0 12.9 0.00 0.00 0.00 50 1015.1
20260508004704 18 251 0.0 12.9 0.00 0.00 0.00 50 1015.1
20260508004604 18 251 0.0 12.9 0.00 0.00 0.00 50 1015.0
20260508004504 18 251 0.0 12.9 0.00 0.00 0.00 50 1014.9
20260508004404 18 251 0.0 12.9 0.00 0.00 0.00 50 1014.8
20260508004304 18 244 0.0 12.9 0.00 0.00 0.00 50 1014.6
20260508004204 18 244 0.0 12.9 0.00 0.00 0.00 50 1014.5
20260508004104 18 247 0.0 12.9 0.00 0.00 0.00 50 1014.4
20260508004004 18 249 0.0 12.9 0.00 0.00 0.00 50 1014.4
20260508003925 18 260 0.0 12.9 0.00 0.00 0.00 50 1014.4
20260508003825 18 259 0.0 12.9 0.00 0.00 0.00 50 1014.5
20260508003704 18 259 0.0 12.9 0.00 0.00 0.00 50 1014.8
20260508003604 18 259 0.0 12.9 0.00 0.00 0.00 50 1014.9
20260508003525 18 259 0.0 12.9 0.00 0.00 0.00 50 1015.0
20260508003404 18 259 0.0 12.9 0.00 0.00 0.00 50 1015.1
20260508003304 18 263 0.0 12.9 0.00 0.00 0.00 50 1015.1
20260508003204 18 263 0.0 12.9 0.00 0.00 0.00 50 1014.9
20260508003105 18 261 0.0 12.9 0.00 0.00 0.00 50 1014.8
20260508003025 18 261 0.0 12.9 0.00 0.00 0.00 50 1014.7
20260508002904 18 229 0.0 6.4 0.00 0.00 0.00 50 1014.8
20260508002825 18 228 0.0 6.4 0.00 0.00 0.00 50 1015.1
20260508002704 18 221 0.0 6.4 0.00 0.00 0.00 50 1015.4
20260508002625 18 221 0.0 6.4 0.00 0.00 0.00 50 1015.6
20260508002504 18 218 0.0 6.4 0.00 0.00 0.00 51 1015.7
20260508002404 18 211 0.0 6.4 0.00 0.00 0.00 51 1015.8
20260508002307 18 211 0.0 6.4 0.00 0.00 0.00 51 1015.7
20260508002204 18 211 0.0 6.4 0.00 0.00 0.00 51 1015.5
20260508002104 18 214 0.0 6.4 0.00 0.00 0.00 51 1015.3
20260508002004 18 218 0.0 14.5 0.00 0.00 0.00 51 1015.2
20260508001925 18 217 0.0 14.5 0.00 0.00 0.00 51 1015.3
20260508001804 18 216 0.0 14.5 0.00 0.00 0.00 51 1015.5
20260508001704 18 216 0.0 14.5 0.00 0.00 0.00 51 1015.7
20260508001604 18 216 0.0 14.5 0.00 0.00 0.00 51 1015.8
20260508001504 18 217 0.0 14.5 0.00 0.00 0.00 51 1015.8
20260508001404 18 218 0.0 14.5 0.00 0.00 0.00 51 1015.7
20260508001304 18 219 0.0 14.5 0.00 0.00 0.00 51 1015.5
20260508001225 18 219 0.0 14.5 0.00 0.00 0.00 51 1015.5
20260508001125 18 219 0.0 14.5 0.00 0.00 0.00 51 1015.5
20260508001004 18 0 0.0 1.6 0.00 0.00 0.00 51 1015.6
20260508000904 18 0 0.0 1.6 0.00 0.00 0.00 51 1015.7
20260508000804 18 0 0.0 1.6 0.00 0.00 0.00 51 1015.8
20260508000704 18 0 0.0 1.6 0.00 0.00 0.00 51 1015.8
20260508000625 18 0 0.0 1.6 0.00 0.00 0.00 51 1015.8
20260508000504 18 232 0.0 9.7 0.00 0.00 0.00 51 1015.6
20260508000405 18 234 0.0 11.3 0.00 0.00 0.00 51 1015.6
20260508000305 18 234 0.0 11.3 0.00 0.00 0.00 51 1015.7
20260508000205 18 234 0.0 11.3 0.00 0.00 0.00 51 1015.6
20260508000104 18 234 0.0 11.3 0.00 0.00 0.00 51 1015.7
20260508000025 18 234 0.0 11.3 0.00 0.00 0.00 51 1015.6
20260507235904 18 234 0.0 11.3 0.00 0.00 0.00 51 1015.5
20260507235825 18 234 0.0 11.3 0.00 0.00 0.00 51 1015.4
20260507235704 18 234 0.0 11.3 0.00 0.00 0.00 51 1015.3
20260507235625 18 234 0.0 11.3 0.00 0.00 0.00 51 1015.3
20260507235504 18 233 0.0 11.3 0.00 0.00 0.00 51 1015.4
20260507235404 18 0 0.0 0.0 0.00 0.00 0.00 51 1015.5
20260507235306 18 0 0.0 0.0 0.00 0.00 0.00 50 1015.7
20260507235204 18 0 0.0 0.0 0.00 0.00 0.00 51 1015.8
20260507235104 18 0 0.0 0.0 0.00 0.00 0.00 51 1015.8
20260507235004 18 0 0.0 0.0 0.00 0.00 0.00 51 1015.9
20260507234904 18 0 0.0 0.0 0.00 0.00 0.00 51 1015.8
20260507234804 18 0 0.0 0.0 0.00 0.00 0.00 51 1015.8
20260507234704 18 0 0.0 0.0 0.00 0.00 0.00 51 1015.7
20260507234604 18 0 0.0 0.0 0.00 0.00 0.00 51 1015.7
20260507234525 18 0 0.0 0.0 0.00 0.00 0.00 51 1015.7
20260507234404 18 0 0.0 0.0 0.00 0.00 0.00 51 1015.7
20260507234304 18 0 0.0 0.0 0.00 0.00 0.00 51 1015.8
20260507234204 18 0 0.0 0.0 0.00 0.00 0.00 50 1015.8
20260507234104 18 0 0.0 0.0 0.00 0.00 0.00 51 1015.8
20260507234004 18 0 0.0 0.0 0.00 0.00 0.00 51 1015.9
20260507233904 18 0 0.0 0.0 0.00 0.00 0.00 51 1015.9
20260507233804 18 0 0.0 0.0 0.00 0.00 0.00 50 1015.9
20260507233704 18 0 0.0 0.0 0.00 0.00 0.00 51 1015.8
20260507233604 18 0 0.0 0.0 0.00 0.00 0.00 51 1015.9
20260507233504 18 0 0.0 0.0 0.00 0.00 0.00 51 1015.8
20260507233425 18 0 0.0 0.0 0.00 0.00 0.00 51 1015.8
20260507233304 18 220 0.0 8.0 0.00 0.00 0.00 51 1015.8
20260507233204 18 219 1.6 9.7 0.00 0.00 0.00 51 1015.7
20260507233104 18 219 1.6 9.7 0.00 0.00 0.00 51 1015.8
20260507233004 18 219 1.6 9.7 0.00 0.00 0.00 51 1015.8
20260507232904 18 219 1.6 9.7 0.00 0.00 0.00 51 1015.8
20260507232804 18 219 1.6 9.7 0.00 0.00 0.00 51 1015.7
20260507232705 18 219 1.6 9.7 0.00 0.00 0.00 51 1015.6
20260507232604 18 219 1.6 9.7 0.00 0.00 0.00 51 1015.6
20260507232504 18 219 1.6 9.7 0.00 0.00 0.00 51 1015.5
20260507232404 18 219 1.6 9.7 0.00 0.00 0.00 51 1015.5
20260507232306 18 219 0.0 9.7 0.00 0.00 0.00 51 1015.5
20260507232204 18 0 0.0 1.6 0.00 0.00 0.00 51 1015.5
20260507232104 18 0 0.0 1.6 0.00 0.00 0.00 51 1015.7
20260507232004 18 0 0.0 1.6 0.00 0.00 0.00 51 1015.7
20260507231904 18 0 0.0 1.6 0.00 0.00 0.00 51 1015.7
20260507231804 18 0 0.0 1.6 0.00 0.00 0.00 51 1015.7
20260507231704 18 0 0.0 1.6 0.00 0.00 0.00 51 1015.7
20260507231604 18 0 0.0 0.0 0.00 0.00 0.00 51 1015.7
20260507231504 18 0 0.0 0.0 0.00 0.00 0.00 51 1015.8
20260507231404 18 0 0.0 0.0 0.00 0.00 0.00 51 1015.9
20260507231304 18 0 0.0 0.0 0.00 0.00 0.00 51 1016.0
20260507231204 18 0 0.0 0.0 0.00 0.00 0.00 51 1016.0
20260507231104 18 0 0.0 0.0 0.00 0.00 0.00 50 1016.0
20260507231004 18 0 0.0 0.0 0.00 0.00 0.00 50 1016.0
20260507230904 18 0 0.0 0.0 0.00 0.00 0.00 51 1015.9
20260507230805 18 0 0.0 0.0 0.00 0.00 0.00 51 1015.8
20260507230704 18 0 0.0 0.0 0.00 0.00 0.00 51 1015.8
20260507230625 18 0 0.0 0.0 0.00 0.00 0.00 51 1015.7
20260507230504 18 0 0.0 0.0 0.00 0.00 0.00 50 1015.7
20260507230404 18 0 0.0 0.0 0.00 0.00 0.00 50 1015.6
20260507230304 18 0 0.0 0.0 0.00 0.00 0.00 50 1015.6
20260507230204 18 0 0.0 0.0 0.00 0.00 0.00 50 1015.5
20260507230104 18 0 0.0 0.0 0.00 0.00 0.00 50 1015.5
20260507230004 18 0 0.0 0.0 0.00 0.00 0.00 51 1015.5
20260507225905 18 0 0.0 0.0 0.00 0.00 0.00 50 1015.5
20260507225804 18 0 0.0 0.0 0.00 0.00 0.00 51 1015.5
20260507225704 18 0 0.0 0.0 0.00 0.00 0.00 51 1015.5
20260507225604 18 0 0.0 0.0 0.00 0.00 0.00 51 1015.4
20260507225504 18 0 0.0 0.0 0.00 0.00 0.00 51 1015.5
20260507225425 18 182 1.6 8.0 0.00 0.00 0.00 51 1015.5
20260507225325 18 186 1.6 12.9 0.00 0.00 0.00 50 1015.5
20260507225225 18 185 1.6 12.9 0.00 0.00 0.00 50 1015.7
20260507225104 18 192 1.6 12.9 0.00 0.00 0.00 51 1015.7
20260507225025 18 192 1.6 12.9 0.00 0.00 0.00 51 1015.7
20260507224904 18 192 1.6 12.9 0.00 0.00 0.00 51 1015.7
20260507224804 18 192 1.6 12.9 0.00 0.00 0.00 51 1015.7
20260507224705 18 192 1.6 12.9 0.00 0.00 0.00 51 1015.8
20260507224604 18 192 1.6 12.9 0.00 0.00 0.00 51 1015.8
20260507224505 18 192 1.6 12.9 0.00 0.00 0.00 50 1015.9
20260507224404 18 197 1.6 12.9 0.00 0.00 0.00 50 1015.8
20260507224304 18 197 1.6 12.9 0.00 0.00 0.00 50 1015.7
20260507224204 18 202 0.0 9.7 0.00 0.00 0.00 50 1015.7
20260507224104 18 209 0.0 4.8 0.00 0.00 0.00 51 1015.8
20260507224004 18 197 0.0 4.8 0.00 0.00 0.00 50 1015.8
20260507223904 18 197 0.0 4.8 0.00 0.00 0.00 50 1015.9
20260507223804 18 197 0.0 4.8 0.00 0.00 0.00 50 1015.9
20260507223704 18 196 0.0 4.8 0.00 0.00 0.00 50 1016.1
20260507223604 18 196 0.0 4.8 0.00 0.00 0.00 50 1016.1
20260507223504 18 196 0.0 4.8 0.00 0.00 0.00 50 1016.2
20260507223425 18 196 0.0 4.8 0.00 0.00 0.00 50 1016.2
20260507223304 18 196 0.0 4.8 0.00 0.00 0.00 50 1016.3
20260507223225 18 194 0.0 4.8 0.00 0.00 0.00 50 1016.3
20260507223104 18 195 0.0 4.8 0.00 0.00 0.00 50 1016.3
20260507223004 18 196 0.0 4.8 0.00 0.00 0.00 50 1016.3
20260507222904 18 193 0.0 4.8 0.00 0.00 0.00 50 1016.3
20260507222804 18 197 0.0 9.7 0.00 0.00 0.00 50 1016.3
20260507222704 18 197 0.0 9.7 0.00 0.00 0.00 50 1016.3
20260507222604 18 186 0.0 9.7 0.00 0.00 0.00 50 1016.3
20260507222504 18 186 0.0 9.7 0.00 0.00 0.00 50 1016.3
20260507222404 18 186 0.0 9.7 0.00 0.00 0.00 50 1016.4
20260507222306 18 186 0.0 9.7 0.00 0.00 0.00 50 1016.4
20260507222225 18 186 0.0 9.7 0.00 0.00 0.00 50 1016.4
20260507222104 18 184 0.0 9.7 0.00 0.00 0.00 50 1016.3
20260507222004 18 184 0.0 9.7 0.00 0.00 0.00 50 1016.3
20260507221904 18 185 0.0 16.1 0.00 0.00 0.00 50 1016.3
20260507221804 18 180 0.0 16.1 0.00 0.00 0.00 50 1016.2
20260507221704 18 178 0.0 16.1 0.00 0.00 0.00 49 1016.2
20260507221605 18 178 0.0 16.1 0.00 0.00 0.00 50 1016.2
20260507221504 18 181 0.0 16.1 0.00 0.00 0.00 50 1016.2
20260507221404 18 177 0.0 16.1 0.00 0.00 0.00 49 1016.2
20260507221325 18 174 0.0 16.1 0.00 0.00 0.00 50 1016.2
20260507221204 18 171 1.6 16.1 0.00 0.00 0.00 49 1016.2
20260507221104 18 170 1.6 16.1 0.00 0.00 0.00 49 1016.3
20260507221004 18 172 1.6 16.1 0.00 0.00 0.00 49 1016.2
20260507220904 18 170 3.2 14.5 0.00 0.00 0.00 49 1016.2
20260507220804 18 167 3.2 14.5 0.00 0.00 0.00 50 1016.2
20260507220704 18 166 4.8 16.1 0.00 0.00 0.00 49 1016.1
20260507220625 18 169 4.8 16.1 0.00 0.00 0.00 50 1016.1
20260507220525 18 168 4.8 16.1 0.00 0.00 0.00 50 1016.1
20260507220404 18 168 4.8 16.1 0.00 0.00 0.00 49 1016.1
20260507220304 18 169 4.8 16.1 0.00 0.00 0.00 49 1016.1
20260507220204 18 170 4.8 16.1 0.00 0.00 0.00 49 1016.1
20260507220104 19 170 4.8 16.1 0.00 0.00 0.00 49 1016.1
20260507220025 19 171 3.2 16.1 0.00 0.00 0.00 49 1016.1
20260507215904 19 170 3.2 16.1 0.00 0.00 0.00 49 1016.0
20260507215804 19 174 1.6 16.1 0.00 0.00 0.00 49 1016.0
20260507215704 19 175 3.2 14.5 0.00 0.00 0.00 49 1016.0
20260507215604 19 165 3.2 20.9 0.00 0.00 0.00 49 1016.0
20260507215525 19 167 3.2 20.9 0.00 0.00 0.00 49 1016.0
20260507215404 19 162 4.8 20.9 0.00 0.00 0.00 49 1016.0
20260507215325 19 162 4.8 20.9 0.00 0.00 0.00 49 1016.0
20260507215204 19 161 4.8 20.9 0.00 0.00 0.00 49 1016.0
20260507215104 19 161 4.8 20.9 0.00 0.00 0.00 49 1016.0
20260507215004 19 161 4.8 20.9 0.00 0.00 0.00 49 1016.1
20260507214904 19 161 4.8 20.9 0.00 0.00 0.00 49 1016.2
20260507214804 19 161 4.8 20.9 0.00 0.00 0.00 49 1016.2
20260507214704 19 160 4.8 20.9 0.00 0.00 0.00 49 1016.3
20260507214604 19 162 3.2 17.7 0.00 0.00 0.00 49 1016.3
20260507214504 19 164 1.6 17.7 0.00 0.00 0.00 48 1016.2
20260507214404 19 171 1.6 16.1 0.00 0.00 0.00 49 1016.2
20260507214304 19 179 1.6 16.1 0.00 0.00 0.00 48 1016.1
20260507214204 19 196 1.6 11.3 0.00 0.00 0.00 48 1016.1
20260507214104 19 194 1.6 11.3 0.00 0.00 0.00 48 1016.1
20260507214004 19 192 1.6 11.3 0.00 0.00 0.00 48 1016.2
20260507213904 19 194 1.6 11.3 0.00 0.00 0.00 48 1016.1
20260507213804 19 192 1.6 11.3 0.00 0.00 0.00 48 1016.1
20260507213704 19 185 1.6 11.3 0.00 0.00 0.00 48 1016.1
20260507213605 19 185 1.6 11.3 0.00 0.00 0.00 48 1016.0
20260507213525 19 185 1.6 11.3 0.00 0.00 0.00 48 1015.9
20260507213404 19 183 1.6 11.3 0.00 0.00 0.00 47 1015.9
20260507213304 19 176 1.6 11.3 0.00 0.00 0.00 47 1015.8
20260507213204 19 170 1.6 12.9 0.00 0.00 0.00 47 1015.9
20260507213104 19 169 1.6 12.9 0.00 0.00 0.00 47 1015.9
20260507213025 19 169 1.6 12.9 0.00 0.00 0.00 47 1016.0
20260507212905 19 171 1.6 12.9 0.00 0.00 0.00 47 1016.1
20260507212804 19 168 1.6 12.9 0.00 0.00 0.00 48 1016.2
20260507212704 19 173 1.6 12.9 0.00 0.00 0.00 47 1016.1
20260507212625 19 171 1.6 12.9 0.00 0.00 0.00 47 1016.1
20260507212504 19 160 1.6 19.3 0.00 0.00 0.00 47 1016.0
20260507212404 19 160 1.6 19.3 0.00 0.00 0.00 47 1016.0
20260507212325 19 161 1.6 19.3 0.00 0.00 0.00 47 1015.9
20260507212225 18 165 1.6 19.3 0.00 0.00 0.00 47 1015.9
20260507212104 18 169 1.6 19.3 0.00 0.00 0.00 47 1015.8
20260507212025 18 172 1.6 19.3 0.00 0.00 0.00 47 1015.7
20260507211904 18 171 3.2 19.3 0.00 0.00 0.00 47 1015.7
20260507211825 18 170 3.2 19.3 0.00 0.00 0.00 47 1015.7
20260507211704 18 171 3.2 19.3 0.00 0.00 0.00 47 1015.7
20260507211604 18 170 3.2 17.7 0.00 0.00 0.00 47 1015.7
20260507211504 18 174 3.2 14.5 0.00 0.00 0.00 47 1015.7
20260507211404 18 177 3.2 14.5 0.00 0.00 0.00 47 1015.7
20260507211304 18 176 3.2 14.5 0.00 0.00 0.00 48 1015.8
20260507211204 18 174 3.2 14.5 0.00 0.00 0.00 47 1015.8
20260507211104 18 174 3.2 14.5 0.00 0.00 0.00 47 1015.8
20260507211004 18 172 3.2 14.5 0.00 0.00 0.00 47 1015.8
20260507210925 18 173 3.2 14.5 0.00 0.00 0.00 47 1015.9
20260507210825 18 175 3.2 14.5 0.00 0.00 0.00 47 1016.0
20260507210704 18 178 3.2 14.5 0.00 0.00 0.00 47 1016.0
20260507210604 18 179 3.2 14.5 0.00 0.00 0.00 47 1016.1
20260507210504 18 183 1.6 14.5 0.00 0.00 0.00 48 1016.2
20260507210404 18 183 1.6 9.7 0.00 0.00 0.00 47 1016.2
20260507210304 18 184 1.6 9.7 0.00 0.00 0.00 47 1016.3
20260507210204 18 187 1.6 9.7 0.00 0.00 0.00 47 1016.3
20260507210104 18 186 1.6 9.7 0.00 0.00 0.00 47 1016.3
20260507210005 18 186 1.6 9.7 0.00 0.00 0.00 48 1016.4
20260507205904 18 184 1.6 9.7 0.00 0.00 0.00 47 1016.3
20260507205804 18 183 1.6 9.7 0.00 0.00 0.00 48 1016.3
20260507205704 18 181 1.6 9.7 0.00 0.00 0.00 47 1016.3
20260507205604 18 181 0.0 9.7 0.00 0.00 0.00 48 1016.3
20260507205504 18 186 0.0 9.7 0.00 0.00 0.00 48 1016.3
20260507205404 18 188 0.0 9.7 0.00 0.00 0.00 47 1016.4
20260507205306 18 190 0.0 9.7 0.00 0.00 0.00 47 1016.4
20260507205225 18 196 0.0 4.8 0.00 0.00 0.00 47 1016.5
20260507205125 18 189 0.0 4.8 0.00 0.00 0.00 47 1016.6
20260507205004 18 171 0.0 11.3 0.00 0.00 0.00 47 1016.7
20260507204904 18 171 0.0 11.3 0.00 0.00 0.00 47 1016.8
20260507204825 18 171 0.0 11.3 0.00 0.00 0.00 47 1016.9
20260507204704 18 169 0.0 11.3 0.00 0.00 0.00 47 1016.9
20260507204604 18 171 0.0 11.3 0.00 0.00 0.00 47 1017.0
20260507204505 18 170 0.0 11.3 0.00 0.00 0.00 47 1017.1
20260507204404 18 166 0.0 11.3 0.00 0.00 0.00 47 1017.1
20260507204304 18 166 0.0 11.3 0.00 0.00 0.00 47 1017.1
20260507204204 18 166 0.0 11.3 0.00 0.00 0.00 47 1017.1
20260507204104 18 166 0.0 11.3 0.00 0.00 0.00 47 1017.1
20260507204025 18 178 0.0 11.3 0.00 0.00 0.00 47 1017.1
20260507203904 18 197 0.0 6.4 0.00 0.00 0.00 47 1017.2
20260507203804 18 197 0.0 6.4 0.00 0.00 0.00 47 1017.2
20260507203705 18 201 0.0 6.4 0.00 0.00 0.00 46 1017.2
20260507203604 18 198 0.0 6.4 0.00 0.00 0.00 47 1017.1
20260507203504 18 196 0.0 6.4 0.00 0.00 0.00 46 1017.0
20260507203404 18 196 0.0 6.4 0.00 0.00 0.00 47 1017.1
20260507203304 18 196 0.0 6.4 0.00 0.00 0.00 47 1017.0
20260507203204 18 196 0.0 6.4 0.00 0.00 0.00 47 1017.0
20260507203104 18 200 0.0 6.4 0.00 0.00 0.00 46 1017.0
20260507203004 18 186 0.0 4.8 0.00 0.00 0.00 46 1016.9
20260507202904 18 198 0.0 4.8 0.00 0.00 0.00 46 1016.9
20260507202804 18 200 0.0 4.8 0.00 0.00 0.00 46 1016.9
20260507202704 18 202 0.0 4.8 0.00 0.00 0.00 46 1017.0
20260507202604 18 207 0.0 4.8 0.00 0.00 0.00 46 1017.0
20260507202525 18 204 0.0 4.8 0.00 0.00 0.00 46 1016.9
20260507202404 18 194 0.0 9.7 0.00 0.00 0.00 46 1016.9
20260507202325 18 196 0.0 9.7 0.00 0.00 0.00 46 1016.9
20260507202204 18 196 0.0 9.7 0.00 0.00 0.00 47 1016.9
20260507202104 18 196 0.0 9.7 0.00 0.00 0.00 46 1016.9
20260507202004 18 195 0.0 9.7 0.00 0.00 0.00 46 1016.9
20260507201925 18 190 0.0 9.7 0.00 0.00 0.00 46 1017.0
20260507201804 18 190 0.0 9.7 0.00 0.00 0.00 46 1017.0
20260507201725 18 188 0.0 9.7 0.00 0.00 0.00 46 1016.9
20260507201625 18 187 0.0 9.7 0.00 0.00 0.00 46 1017.0
20260507201504 18 190 0.0 9.7 0.00 0.00 0.00 46 1017.0
20260507201426 18 193 0.0 8.0 0.00 0.00 0.00 46 1017.0
20260507201304 18 198 0.0 8.0 0.00 0.00 0.00 46 1017.0
20260507201204 18 198 0.0 8.0 0.00 0.00 0.00 46 1016.9
20260507201104 18 196 0.0 11.3 0.00 0.00 0.00 46 1016.9
20260507201004 18 196 0.0 11.3 0.00 0.00 0.00 46 1016.9
20260507200904 18 195 0.0 11.3 0.00 0.00 0.00 46 1016.8
20260507200804 18 211 0.0 11.3 0.00 0.00 0.00 46 1016.9
20260507200725 18 213 0.0 11.3 0.00 0.00 0.00 46 1017.0
20260507200604 18 200 0.0 11.3 0.00 0.00 0.00 45 1017.1
20260507200504 18 198 0.0 11.3 0.00 0.00 0.00 45 1017.2
20260507200404 18 190 0.0 11.3 0.00 0.00 0.00 45 1017.3
20260507200304 18 191 0.0 11.3 0.00 0.00 0.00 45 1017.4
20260507200204 17 193 1.6 11.3 0.00 0.00 0.00 45 1017.4
20260507200125 17 192 1.6 11.3 0.00 0.00 0.00 46 1017.5
20260507200004 17 192 1.6 11.3 0.00 0.00 0.00 46 1017.4
20260507195904 17 191 1.6 11.3 0.00 0.00 0.00 45 1017.5
20260507195804 17 189 1.6 11.3 0.00 0.00 0.00 45 1017.5
20260507195704 17 188 1.6 11.3 0.00 0.00 0.00 46 1017.5
20260507195604 17 189 1.6 11.3 0.00 0.00 0.00 45 1017.3
20260507195504 17 189 1.6 11.3 0.00 0.00 0.00 45 1017.3
20260507195404 17 189 1.6 11.3 0.00 0.00 0.00 45 1017.3
20260507195306 17 189 1.6 11.3 0.00 0.00 0.00 45 1017.3
20260507195225 17 190 1.6 11.3 0.00 0.00 0.00 45 1017.3
20260507195104 17 190 1.6 11.3 0.00 0.00 0.00 44 1017.2
20260507195004 17 189 1.6 11.3 0.00 0.00 0.00 44 1017.2
20260507194904 17 191 0.0 11.3 0.00 0.00 0.00 44 1017.1
20260507194804 17 192 0.0 11.3 0.00 0.00 0.00 44 1017.1
20260507194725 17 195 0.0 11.3 0.00 0.00 0.00 44 1017.2
20260507194604 17 200 0.0 11.3 0.00 0.00 0.00 44 1017.1
20260507194525 17 193 0.0 11.3 0.00 0.00 0.00 44 1017.1
20260507194404 17 196 0.0 11.3 0.00 0.00 0.00 44 1017.2
20260507194325 17 199 0.0 11.3 0.00 0.00 0.00 44 1017.2
20260507194204 17 192 0.0 6.4 0.00 0.00 0.00 44 1017.2
20260507194125 17 192 0.0 6.4 0.00 0.00 0.00 44 1017.2
20260507194025 17 191 0.0 6.4 0.00 0.00 0.00 44 1017.2
20260507193904 17 192 0.0 6.4 0.00 0.00 0.00 44 1017.2
20260507193825 17 191 0.0 6.4 0.00 0.00 0.00 43 1017.3
20260507193704 17 179 0.0 6.4 0.00 0.00 0.00 43 1017.3
20260507193604 17 179 0.0 6.4 0.00 0.00 0.00 43 1017.3
20260507193504 17 194 0.0 4.8 0.00 0.00 0.00 43 1017.3
20260507193404 17 194 0.0 4.8 0.00 0.00 0.00 43 1017.3
20260507193304 17 194 0.0 4.8 0.00 0.00 0.00 43 1017.4
20260507193204 17 194 0.0 4.8 0.00 0.00 0.00 43 1017.4
20260507193104 17 209 0.0 1.6 0.00 0.00 0.00 43 1017.4
20260507193004 18 213 0.0 1.6 0.00 0.00 0.00 42 1017.4
20260507192904 17 220 0.0 11.3 0.00 0.00 0.00 42 1017.5
20260507192804 17 219 0.0 16.1 0.00 0.00 0.00 42 1017.5
20260507192704 17 213 1.6 16.1 0.00 0.00 0.00 42 1017.6
20260507192625 17 204 1.6 16.1 0.00 0.00 0.00 43 1017.8
20260507192504 17 196 3.2 16.1 0.00 0.00 0.00 42 1017.7
20260507192404 17 196 3.2 16.1 0.00 0.00 0.00 42 1017.7
20260507192306 17 191 4.8 16.1 0.00 0.00 0.00 43 1017.6
20260507192225 17 191 4.8 16.1 0.00 0.00 0.00 43 1017.6
20260507192104 17 192 4.8 16.1 0.00 0.00 0.00 43 1017.5
20260507192025 17 193 6.4 16.1 0.00 0.00 0.00 43 1017.4
20260507191925 17 198 6.4 16.1 0.00 0.00 0.00 43 1017.3
20260507191804 17 198 6.4 16.1 0.00 0.00 0.00 43 1017.4
20260507191725 17 197 6.4 16.1 0.00 0.00 0.00 43 1017.3
20260507191604 17 200 6.4 16.1 0.00 0.00 0.00 43 1017.4
20260507191504 17 204 8.0 16.1 0.00 0.00 0.00 43 1017.5
20260507191425 17 207 8.0 16.1 0.00 0.00 0.00 43 1017.6
20260507191304 17 212 8.0 17.7 0.00 0.00 0.00 42 1017.7
20260507191225 17 213 8.0 17.7 0.00 0.00 0.00 42 1017.7
20260507191104 17 216 9.7 20.9 0.00 0.00 0.00 43 1017.7
20260507191025 17 214 9.7 20.9 0.00 0.00 0.00 42 1017.7
20260507190904 17 211 9.7 20.9 0.00 0.00 0.00 42 1017.6
20260507190825 17 211 9.7 20.9 0.00 0.00 0.00 43 1017.5
20260507190705 17 210 11.3 20.9 0.00 0.00 0.00 43 1017.4
20260507190604 17 209 11.3 20.9 0.00 0.00 0.00 43 1017.3
20260507190504 17 208 9.7 20.9 0.00 0.00 0.00 43 1017.4
20260507190404 17 210 9.7 20.9 0.00 0.00 0.00 43 1017.4
20260507190304 17 209 9.7 20.9 0.00 0.00 0.00 43 1017.5
20260507190204 17 210 9.7 20.9 0.00 0.00 0.00 43 1017.7
20260507190104 17 210 9.7 17.7 0.00 0.00 0.00 43 1017.8
20260507190005 17 211 9.7 17.7 0.00 0.00 0.00 42 1017.9
20260507185925 17 210 8.0 17.7 0.00 0.00 0.00 42 1018.0
20260507185804 17 206 8.0 17.7 0.00 0.00 0.00 42 1017.9
20260507185704 17 207 8.0 17.7 0.00 0.00 0.00 42 1017.9
20260507185604 17 205 8.0 16.1 0.00 0.00 0.00 41 1017.8
20260507185525 17 204 8.0 16.1 0.00 0.00 0.00 41 1017.7
20260507185404 17 201 8.0 16.1 0.00 0.00 0.00 42 1017.7
20260507185306 17 201 8.0 16.1 0.00 0.00 0.00 42 1017.8
20260507185204 17 200 8.0 16.1 0.00 0.00 0.00 42 1017.8
20260507185104 17 198 8.0 16.1 0.00 0.00 0.00 42 1017.9
20260507185004 17 196 9.7 16.1 0.00 0.00 0.00 41 1017.9
20260507184904 17 199 9.7 16.1 0.00 0.00 0.00 42 1017.9
20260507184804 17 201 9.7 16.1 0.00 0.00 0.00 42 1017.9
20260507184704 17 202 9.7 17.7 0.00 0.00 0.00 42 1017.9
20260507184604 17 205 9.7 17.7 0.00 0.00 0.00 42 1018.0
20260507184504 17 206 9.7 17.7 0.00 0.00 0.00 42 1018.0
20260507184404 17 204 9.7 17.7 0.00 0.00 0.00 42 1018.0
20260507184304 17 204 9.7 17.7 0.00 0.00 0.00 42 1018.1
20260507184204 17 203 8.0 17.7 0.00 0.00 0.00 42 1018.1
20260507184104 17 203 8.0 17.7 0.00 0.00 0.00 41 1018.1
20260507184025 17 207 8.0 17.7 0.00 0.00 0.00 42 1018.1
20260507183904 17 208 8.0 17.7 0.00 0.00 0.00 41 1018.2
20260507183804 17 205 8.0 17.7 0.00 0.00 0.00 41 1018.1
20260507183704 17 200 9.7 20.9 0.00 0.00 0.00 41 1018.1
20260507183625 17 198 9.7 20.9 0.00 0.00 0.00 41 1018.1
20260507183504 17 198 9.7 20.9 0.00 0.00 0.00 40 1018.1
20260507183425 17 198 9.7 20.9 0.00 0.00 0.00 40 1018.1
20260507183304 17 198 9.7 20.9 0.00 0.00 0.00 40 1018.1
20260507183204 17 199 9.7 20.9 0.00 0.00 0.00 40 1018.1
20260507183104 17 197 9.7 22.5 0.00 0.00 0.00 40 1018.0
20260507183004 17 195 9.7 22.5 0.00 0.00 0.00 40 1018.1
20260507182904 17 194 11.3 22.5 0.00 0.00 0.00 40 1018.0
20260507182804 17 194 9.7 22.5 0.00 0.00 0.00 40 1018.0
20260507182704 17 197 8.0 22.5 0.00 0.00 0.00 39 1017.9
20260507182604 17 198 8.0 22.5 0.00 0.00 0.00 38 1017.9
20260507182504 17 197 6.4 22.5 0.00 0.00 0.00 38 1017.9
20260507182404 17 196 6.4 22.5 0.00 0.00 0.00 38 1017.9
20260507182306 17 194 4.8 22.5 0.00 0.00 0.00 38 1017.9
20260507182204 17 188 4.8 22.5 0.00 0.00 0.00 38 1018.0
20260507182104 17 188 3.2 20.9 0.00 0.00 0.00 38 1018.0
20260507182004 17 189 1.6 20.9 0.00 0.00 0.00 38 1018.0
20260507181904 17 184 1.6 20.9 0.00 0.00 0.00 38 1018.0
20260507181804 17 201 1.6 11.3 0.00 0.00 0.00 38 1018.1
20260507181704 17 198 0.0 11.3 0.00 0.00 0.00 36 1018.2
20260507181625 17 199 1.6 11.3 0.00 0.00 0.00 37 1018.2
20260507181504 17 204 1.6 14.5 0.00 0.00 0.00 36 1018.3
20260507181425 17 205 1.6 14.5 0.00 0.00 0.00 36 1018.2
20260507181304 17 205 1.6 14.5 0.00 0.00 0.00 37 1018.2
20260507181225 17 205 1.6 14.5 0.00 0.00 0.00 37 1018.0
20260507181104 17 205 1.6 14.5 0.00 0.00 0.00 37 1018.0
20260507181004 17 204 1.6 14.5 0.00 0.00 0.00 37 1018.0
20260507180904 17 205 1.6 14.5 0.00 0.00 0.00 37 1017.9
20260507180804 17 205 1.6 14.5 0.00 0.00 0.00 36 1017.8
20260507180704 17 208 1.6 14.5 0.00 0.00 0.00 36 1017.8
20260507180604 17 208 1.6 14.5 0.00 0.00 0.00 37 1017.7
20260507180504 17 206 1.6 11.3 0.00 0.00 0.00 37 1017.8
20260507180404 17 204 1.6 11.3 0.00 0.00 0.00 37 1017.8
20260507180304 17 205 1.6 11.3 0.00 0.00 0.00 36 1017.8
20260507180204 17 206 1.6 11.3 0.00 0.00 0.00 36 1017.7
20260507180104 17 204 1.6 11.3 0.00 0.00 0.00 37 1017.7
20260507180004 17 205 1.6 11.3 0.00 0.00 0.00 37 1017.7
20260507175925 17 205 1.6 11.3 0.00 0.00 0.00 37 1017.7
20260507175804 17 204 0.0 8.0 0.00 0.00 0.00 36 1017.7
20260507175726 17 204 0.0 8.0 0.00 0.00 0.00 36 1017.8
20260507175625 17 210 0.0 8.0 0.00 0.00 0.00 36 1017.8
20260507175504 17 212 0.0 8.0 0.00 0.00 0.00 34 1017.9
20260507175404 17 219 0.0 4.8 0.00 0.00 0.00 34 1017.9
20260507175307 17 216 0.0 4.8 0.00 0.00 0.00 34 1018.0
20260507175204 17 218 0.0 6.4 0.00 0.00 0.00 34 1018.0
20260507175104 17 220 0.0 12.9 0.00 0.00 0.00 33 1018.1
20260507175025 17 221 0.0 12.9 0.00 0.00 0.00 33 1018.1
20260507174904 17 221 0.0 12.9 0.00 0.00 0.00 34 1018.1
20260507174825 17 220 0.0 12.9 0.00 0.00 0.00 33 1018.1
20260507174704 16 221 1.6 12.9 0.00 0.00 0.00 34 1018.0
20260507174604 16 219 1.6 12.9 0.00 0.00 0.00 33 1018.1
20260507174504 16 220 1.6 12.9 0.00 0.00 0.00 34 1018.1
20260507174405 16 219 1.6 12.9 0.00 0.00 0.00 34 1018.1
20260507174304 16 219 1.6 12.9 0.00 0.00 0.00 35 1018.0
20260507174204 16 219 0.0 12.9 0.00 0.00 0.00 34 1018.0
20260507174104 16 219 0.0 11.3 0.00 0.00 0.00 34 1018.0
20260507174004 16 219 0.0 11.3 0.00 0.00 0.00 34 1017.8
20260507173904 16 218 1.6 9.7 0.00 0.00 0.00 33 1017.8
20260507173804 16 217 1.6 12.9 0.00 0.00 0.00 34 1017.9
20260507173704 16 215 0.0 12.9 0.00 0.00 0.00 33 1018.1
20260507173604 16 216 0.0 12.9 0.00 0.00 0.00 32 1018.2
20260507173525 16 216 0.0 12.9 0.00 0.00 0.00 33 1018.2
20260507173404 16 218 0.0 12.9 0.00 0.00 0.00 33 1018.2
20260507173304 16 217 0.0 12.9 0.00 0.00 0.00 33 1018.2
20260507173204 16 218 0.0 12.9 0.00 0.00 0.00 34 1018.2
20260507173125 16 215 0.0 12.9 0.00 0.00 0.00 34 1018.2
20260507173004 16 214 0.0 12.9 0.00 0.00 0.00 33 1018.2
20260507172904 16 211 0.0 12.9 0.00 0.00 0.00 31 1018.1
20260507172804 16 221 0.0 8.0 0.00 0.00 0.00 31 1017.9
20260507172725 16 220 0.0 8.0 0.00 0.00 0.00 31 1017.8
20260507172604 16 214 0.0 8.0 0.00 0.00 0.00 32 1017.8
20260507172504 16 219 0.0 8.0 0.00 0.00 0.00 32 1017.8
20260507172404 16 222 0.0 8.0 0.00 0.00 0.00 33 1018.0
20260507172307 16 227 0.0 8.0 0.00 0.00 0.00 34 1018.2
20260507172204 16 227 0.0 8.0 0.00 0.00 0.00 33 1018.2
20260507172104 16 218 0.0 19.3 0.00 0.00 0.00 32 1018.1
20260507172004 16 217 0.0 19.3 0.00 0.00 0.00 33 1018.0
20260507171904 16 215 1.6 19.3 0.00 0.00 0.00 33 1017.9
20260507171804 16 202 1.6 19.3 0.00 0.00 0.00 33 1018.0
20260507171704 16 201 1.6 19.3 0.00 0.00 0.00 32 1018.0
20260507171604 16 200 1.6 19.3 0.00 0.00 0.00 32 1018.0
20260507171504 16 196 1.6 19.3 0.00 0.00 0.00 32 1017.9
20260507171404 16 195 1.6 19.3 0.00 0.00 0.00 32 1017.8
20260507171304 16 191 1.6 19.3 0.00 0.00 0.00 33 1018.0
20260507171204 16 192 1.6 19.3 0.00 0.00 0.00 32 1018.2
20260507171104 16 191 0.0 19.3 0.00 0.00 0.00 32 1018.4
20260507171004 16 183 0.0 11.3 0.00 0.00 0.00 32 1018.7
20260507170904 16 180 0.0 11.3 0.00 0.00 0.00 32 1018.8
20260507170804 16 203 0.0 6.4 0.00 0.00 0.00 31 1018.8
20260507170704 16 205 0.0 6.4 0.00 0.00 0.00 31 1018.8
20260507170604 16 202 0.0 6.4 0.00 0.00 0.00 31 1018.7
20260507170504 16 205 0.0 9.7 0.00 0.00 0.00 32 1018.6
20260507170404 16 203 0.0 9.7 0.00 0.00 0.00 31 1018.6
20260507170304 16 202 0.0 9.7 0.00 0.00 0.00 30 1018.5
20260507170204 16 211 1.6 17.7 0.00 0.00 0.00 30 1018.5
20260507170104 16 215 1.6 17.7 0.00 0.00 0.00 30 1018.6
20260507170025 16 215 1.6 17.7 0.00 0.00 0.00 29 1018.5
20260507165904 16 214 1.6 17.7 0.00 0.00 0.00 30 1018.4
20260507165804 16 213 1.6 17.7 0.00 0.00 0.00 30 1018.5
20260507165704 16 210 3.2 17.7 0.00 0.00 0.00 29 1018.5
20260507165604 16 209 3.2 17.7 0.00 0.00 0.00 29 1018.5
20260507165525 16 209 3.2 17.7 0.00 0.00 0.00 29 1018.4
20260507165425 16 210 3.2 17.7 0.00 0.00 0.00 29 1018.2
20260507165306 16 209 3.2 17.7 0.00 0.00 0.00 29 1018.0
20260507165204 16 205 1.6 17.7 0.00 0.00 0.00 28 1018.0
20260507165104 16 202 1.6 17.7 0.00 0.00 0.00 28 1018.0
20260507165004 16 202 1.6 17.7 0.00 0.00 0.00 28 1018.1
20260507164904 16 194 1.6 14.5 0.00 0.00 0.00 28 1018.2
20260507164825 16 194 1.6 14.5 0.00 0.00 0.00 28 1018.3
20260507164704 16 194 1.6 14.5 0.00 0.00 0.00 24 1018.3
20260507164605 16 194 1.6 12.9 0.00 0.00 0.00 24 1018.2
20260507164504 16 194 1.6 12.9 0.00 0.00 0.00 23 1018.2
20260507164404 16 193 1.6 12.9 0.00 0.00 0.00 23 1018.2
20260507164304 15 193 1.6 12.9 0.00 0.00 0.00 22 1018.4
20260507164225 15 193 1.6 12.9 0.00 0.00 0.00 23 1018.6
20260507164104 15 190 1.6 12.9 0.00 0.00 0.00 23 1018.8
20260507164004 15 191 1.6 12.9 0.00 0.00 0.00 23 1018.9
20260507163904 15 186 1.6 12.9 0.00 0.00 0.00 23 1018.9
20260507163804 15 182 1.6 12.9 0.00 0.00 0.00 23 1018.9
20260507163704 15 179 0.0 12.9 0.00 0.00 0.00 22 1018.9
20260507163604 15 176 1.6 14.5 0.00 0.00 0.00 22 1019.1
20260507163504 15 165 1.6 14.5 0.00 0.00 0.00 20 1019.3
20260507163404 15 163 1.6 17.7 0.00 0.00 0.00 20 1019.5
20260507163325 15 163 1.6 17.7 0.00 0.00 0.00 20 1019.6
20260507163204 15 162 1.6 17.7 0.00 0.00 0.00 21 1019.7
20260507163104 15 162 1.6 17.7 0.00 0.00 0.00 22 1019.8
20260507163004 15 161 1.6 17.7 0.00 0.00 0.00 23 1019.9
20260507162904 15 164 1.6 17.7 0.00 0.00 0.00 24 1019.8
20260507162804 15 167 1.6 17.7 0.00 0.00 0.00 24 1019.7
20260507162704 15 167 1.6 17.7 0.00 0.00 0.00 24 1019.6
20260507162604 15 164 1.6 17.7 0.00 0.00 0.00 24 1019.7
20260507162504 15 165 0.0 17.7 0.00 0.00 0.00 22 1019.8
20260507162404 15 174 0.0 9.7 0.00 0.00 0.00 22 1019.8
20260507162307 15 175 0.0 9.7 0.00 0.00 0.00 21 1019.7
20260507162204 15 174 0.0 12.9 0.00 0.00 0.00 22 1019.4
20260507162104 15 173 0.0 12.9 0.00 0.00 0.00 23 1019.2
20260507162004 15 173 0.0 12.9 0.00 0.00 0.00 23 1019.1
20260507161904 15 172 0.0 12.9 0.00 0.00 0.00 23 1019.1
20260507161804 15 168 0.0 12.9 0.00 0.00 0.00 22 1019.1
20260507161704 15 171 0.0 12.9 0.00 0.00 0.00 22 1019.1
20260507161604 15 171 0.0 12.9 0.00 0.00 0.00 22 1019.3
20260507161525 15 171 0.0 12.9 0.00 0.00 0.00 22 1019.3
20260507161404 15 171 0.0 12.9 0.00 0.00 0.00 23 1019.4
20260507161304 15 180 0.0 12.9 0.00 0.00 0.00 24 1019.3
20260507161225 15 184 0.0 9.7 0.00 0.00 0.00 23 1019.3
20260507161104 15 196 0.0 9.7 0.00 0.00 0.00 23 1019.1
20260507161004 15 197 0.0 9.7 0.00 0.00 0.00 24 1019.1
20260507160904 15 191 1.6 12.9 0.00 0.00 0.00 24 1019.1
20260507160825 15 193 1.6 12.9 0.00 0.00 0.00 24 1019.1
20260507160704 15 193 1.6 12.9 0.00 0.00 0.00 24 1019.2
20260507160604 15 194 1.6 12.9 0.00 0.00 0.00 24 1019.3
20260507160504 15 194 1.6 12.9 0.00 0.00 0.00 24 1019.4
20260507160404 15 194 1.6 12.9 0.00 0.00 0.00 24 1019.4
20260507160304 15 194 1.6 12.9 0.00 0.00 0.00 23 1019.3
20260507160204 15 194 1.6 12.9 0.00 0.00 0.00 24 1019.1
20260507160125 15 193 1.6 12.9 0.00 0.00 0.00 24 1019.1
20260507160025 15 191 1.6 12.9 0.00 0.00 0.00 24 1019.1
20260507155904 15 197 0.0 12.9 0.00 0.00 0.00 22 1019.2
20260507155804 15 192 0.0 12.9 0.00 0.00 0.00 20 1019.2
20260507155704 15 193 0.0 12.9 0.00 0.00 0.00 19 1019.1
20260507155604 15 182 0.0 14.5 0.00 0.00 0.00 17 1019.2
20260507155504 15 185 0.0 14.5 0.00 0.00 0.00 16 1019.2
20260507155404 15 185 0.0 14.5 0.00 0.00 0.00 16 1019.3
20260507155306 15 185 0.0 14.5 0.00 0.00 0.00 17 1019.3
20260507155204 15 191 0.0 14.5 0.00 0.00 0.00 17 1019.3
20260507155104 15 193 0.0 14.5 0.00 0.00 0.00 17 1019.3
20260507155004 15 193 0.0 14.5 0.00 0.00 0.00 18 1019.5
20260507154904 15 191 0.0 14.5 0.00 0.00 0.00 18 1019.5
20260507154804 15 185 1.6 14.5 0.00 0.00 0.00 18 1019.5
20260507154704 15 179 1.6 14.5 0.00 0.00 0.00 18 1019.6
20260507154604 15 179 3.2 19.3 0.00 0.00 0.00 18 1019.6
20260507154504 15 179 3.2 19.3 0.00 0.00 0.00 17 1019.6
20260507154425 15 179 3.2 19.3 0.00 0.00 0.00 18 1019.5
20260507154325 15 179 3.2 19.3 0.00 0.00 0.00 18 1019.5
20260507154225 15 179 3.2 19.3 0.00 0.00 0.00 18 1019.4
20260507154104 15 180 3.2 19.3 0.00 0.00 0.00 17 1019.4
20260507154004 15 179 4.8 19.3 0.00 0.00 0.00 18 1019.3
20260507153904 15 179 3.2 19.3 0.00 0.00 0.00 16 1019.3
20260507153804 15 179 3.2 19.3 0.00 0.00 0.00 16 1019.3
20260507153705 15 181 1.6 19.3 0.00 0.00 0.00 16 1019.3
20260507153604 15 185 1.6 14.5 0.00 0.00 0.00 15 1019.3
20260507153525 15 184 1.6 14.5 0.00 0.00 0.00 14 1019.3
20260507153404 15 186 1.6 14.5 0.00 0.00 0.00 14 1019.2
20260507153304 15 189 1.6 14.5 0.00 0.00 0.00 13 1019.2
20260507153204 15 187 1.6 9.7 0.00 0.00 0.00 12 1019.2
20260507153125 15 188 0.0 9.7 0.00 0.00 0.00 11 1019.2
20260507153004 15 191 0.0 9.7 0.00 0.00 0.00 10 1019.3
20260507152904 15 189 1.6 16.1 0.00 0.00 0.00 9 1019.3
20260507152805 15 184 1.6 16.1 0.00 0.00 0.00 10 1019.3
20260507152704 15 181 1.6 16.1 0.00 0.00 0.00 9 1019.2
20260507152604 15 176 1.6 16.1 0.00 0.00 0.00 9 1019.2
20260507152504 15 176 1.6 16.1 0.00 0.00 0.00 8 1019.2
20260507152404 15 174 1.6 16.1 0.00 0.00 0.00 7 1019.1
20260507152306 15 171 1.6 16.1 0.00 0.00 0.00 6 1019.1
20260507152204 15 170 1.6 16.1 0.00 0.00 0.00 6 1019.2
20260507152104 15 168 1.6 16.1 0.00 0.00 0.00 5 1019.2
20260507152004 15 176 3.2 16.1 0.00 0.00 0.00 5 1019.2
20260507151904 15 184 3.2 24.1 0.00 0.00 0.00 4 1019.2
20260507151804 15 183 4.8 24.1 0.00 0.00 0.00 3 1019.2
20260507151704 15 184 6.4 24.1 0.00 0.00 0.00 2 1019.1
20260507151604 15 186 4.8 24.1 0.00 0.00 0.00 1 1019.1
20260507151504 15 186 6.4 24.1 0.00 0.00 0.00 1 1019.1
20260507151404 15 186 8.0 25.7 0.00 0.00 0.00 1 1019.1
20260507151304 15 185 8.0 25.7 0.00 0.00 0.00 1 1019.1
20260507151204 15 185 8.0 25.7 0.00 0.00 0.00 1 1019.1
20260507151104 15 185 8.0 25.7 0.00 0.00 0.00 1 1019.1
20260507151004 15 186 8.0 25.7 0.00 0.00 0.00 1 1019.1
20260507150904 15 183 6.4 25.7 0.00 0.00 0.00 1 1019.0
20260507150804 15 183 4.8 25.7 0.00 0.00 0.00 1 1019.1
20260507150704 15 183 4.8 25.7 0.00 0.00 0.00 1 1019.1
20260507150625 15 181 4.8 25.7 0.00 0.00 0.00 1 1019.1
20260507150525 15 179 3.2 25.7 0.00 0.00 0.00 1 1019.1
20260507150425 15 178 1.6 24.1 0.00 0.00 0.00 1 1019.1
20260507150304 15 176 1.6 14.5 0.00 0.00 0.00 1 1019.1
20260507150204 15 175 1.6 14.5 0.00 0.00 0.00 1 1019.1
20260507150125 15 174 1.6 14.5 0.00 0.00 0.00 1 1019.1
20260507150005 15 170 1.6 14.5 0.00 0.00 0.00 1 1019.2
20260507145925 15 168 1.6 14.5 0.00 0.00 0.00 1 1019.3
20260507145804 15 166 0.0 14.5 0.00 0.00 0.00 1 1019.3
20260507145725 15 166 0.0 14.5 0.00 0.00 0.00 1 1019.3
20260507145625 15 164 0.0 14.5 0.00 0.00 0.00 1 1019.3
20260507145504 15 191 0.0 11.3 0.00 0.00 0.00 1 1019.3
20260507145425 15 192 0.0 11.3 0.00 0.00 0.00 1 1019.2
20260507145325 15 192 0.0 11.3 0.00 0.00 0.00 1 1019.2
20260507145204 15 185 0.0 11.3 0.00 0.00 0.00 1 1019.2
20260507145125 15 185 0.0 11.3 0.00 0.00 0.00 1 1019.2
20260507145025 15 185 1.6 11.3 0.00 0.00 0.00 1 1019.2
20260507144904 15 181 1.6 11.3 0.00 0.00 0.00 1 1019.2
20260507144804 15 179 1.6 11.3 0.00 0.00 0.00 1 1019.2
20260507144704 15 183 1.6 11.3 0.00 0.00 0.00 1 1019.2
20260507144604 15 189 1.6 12.9 0.00 0.00 0.00 1 1019.2
20260507144504 15 187 1.6 12.9 0.00 0.00 0.00 1 1019.2
20260507144404 15 189 1.6 12.9 0.00 0.00 0.00 1 1019.1
20260507144304 15 190 1.6 12.9 0.00 0.00 0.00 1 1019.1
20260507144204 15 192 1.6 12.9 0.00 0.00 0.00 1 1019.2
20260507144104 15 184 3.2 19.3 0.00 0.00 0.00 1 1019.1
20260507144004 15 181 4.8 20.9 0.00 0.00 0.00 1 1019.1
20260507143904 15 183 6.4 20.9 0.00 0.00 0.00 1 1019.1
20260507143804 15 185 6.4 20.9 0.00 0.00 0.00 1 1019.0
20260507143704 15 185 8.0 20.9 0.00 0.00 0.00 1 1018.9
20260507143604 15 183 8.0 20.9 0.00 0.00 0.00 1 1018.8
20260507143504 15 185 9.7 24.1 0.00 0.00 0.00 1 1018.7
20260507143404 15 184 11.3 24.1 0.00 0.00 0.00 1 1018.7
20260507143304 15 185 11.3 24.1 0.00 0.00 0.00 1 1018.6
20260507143204 15 187 11.3 24.1 0.00 0.00 0.00 1 1018.5
20260507143104 15 189 11.3 24.1 0.00 0.00 0.00 1 1018.4
20260507143004 15 192 9.7 24.1 0.00 0.00 0.00 1 1018.5
20260507142904 15 192 8.0 24.1 0.00 0.00 0.00 1 1018.5
20260507142804 15 192 6.4 24.1 0.00 0.00 0.00 1 1018.6
20260507142704 15 191 6.4 24.1 0.00 0.00 0.00 1 1018.6
20260507142625 15 195 4.8 24.1 0.00 0.00 0.00 1 1018.7
20260507142504 15 192 4.8 14.5 0.00 0.00 0.00 1 1018.7
20260507142404 15 195 3.2 14.5 0.00 0.00 0.00 1 1018.7
20260507142306 15 192 3.2 14.5 0.00 0.00 0.00 1 1018.7
20260507142204 15 183 1.6 14.5 0.00 0.00 0.00 1 1018.7
20260507142104 15 178 1.6 14.5 0.00 0.00 0.00 1 1018.7
20260507142025 15 178 1.6 14.5 0.00 0.00 0.00 1 1018.7
20260507141904 15 183 3.2 16.1 0.00 0.00 0.00 1 1018.7
20260507141804 15 183 3.2 16.1 0.00 0.00 0.00 1 1018.8
20260507141704 15 183 3.2 16.1 0.00 0.00 0.00 1 1018.7
20260507141604 15 186 3.2 19.3 0.00 0.00 0.00 1 1018.8
20260507141504 15 191 3.2 19.3 0.00 0.00 0.00 1 1018.8
20260507141404 15 191 4.8 19.3 0.00 0.00 0.00 1 1018.8
20260507141304 15 189 4.8 19.3 0.00 0.00 0.00 1 1018.9
20260507141204 15 187 4.8 19.3 0.00 0.00 0.00 1 1018.9
20260507141104 15 188 4.8 19.3 0.00 0.00 0.00 1 1018.8
20260507141004 15 188 4.8 19.3 0.00 0.00 0.00 1 1018.8
20260507140925 15 186 3.2 19.3 0.00 0.00 0.00 1 1018.8
20260507140804 15 187 3.2 19.3 0.00 0.00 0.00 1 1018.9
20260507140704 15 187 3.2 19.3 0.00 0.00 0.00 1 1018.9
20260507140604 15 184 3.2 17.7 0.00 0.00 0.00 1 1019.0
20260507140525 15 182 3.2 17.7 0.00 0.00 0.00 1 1018.9
20260507140404 15 179 1.6 16.1 0.00 0.00 0.00 1 1018.9
20260507140304 15 184 1.6 16.1 0.00 0.00 0.00 1 1018.9
20260507140204 15 185 3.2 16.1 0.00 0.00 0.00 1 1018.8
20260507140104 15 179 3.2 20.9 0.00 0.00 0.00 1 1018.8
20260507140004 15 178 4.8 20.9 0.00 0.00 0.00 1 1018.7
20260507135904 15 179 4.8 20.9 0.00 0.00 0.00 1 1018.6
20260507135804 15 179 6.4 25.7 0.00 0.00 0.00 1 1018.5
20260507135704 15 178 8.0 25.7 0.00 0.00 0.00 1 1018.3
20260507135604 15 179 9.7 25.7 0.00 0.00 0.00 1 1018.3
20260507135504 15 180 9.7 25.7 0.00 0.00 0.00 1 1018.2
20260507135404 15 183 11.3 25.7 0.00 0.00 0.00 1 1018.2
20260507135306 15 184 12.9 25.7 0.00 0.00 0.00 1 1018.2
20260507135204 15 186 12.9 25.7 0.00 0.00 0.00 1 1018.1
20260507135104 15 187 14.5 30.6 0.00 0.00 0.00 1 1018.2
20260507135004 15 188 14.5 30.6 0.00 0.00 0.00 1 1018.1
20260507134904 15 187 14.5 30.6 0.00 0.00 0.00 1 1018.2
20260507134825 15 187 14.5 30.6 0.00 0.00 0.00 1 1018.1
20260507134704 15 187 12.9 30.6 0.00 0.00 0.00 1 1018.2
20260507134625 15 187 11.3 30.6 0.00 0.00 0.00 1 1018.2
20260507134504 15 187 11.3 30.6 0.00 0.00 0.00 1 1018.2
20260507134404 15 186 9.7 30.6 0.00 0.00 0.00 1 1018.3
20260507134304 15 185 9.7 30.6 0.00 0.00 0.00 1 1018.2
20260507134204 15 181 8.0 30.6 0.00 0.00 0.00 1 1018.3
20260507134125 15 179 6.4 29.0 0.00 0.00 0.00 1 1018.3
20260507134004 15 176 4.8 27.4 0.00 0.00 0.00 1 1018.2
20260507133904 15 174 4.8 27.4 0.00 0.00 0.00 1 1018.2
20260507133804 15 175 4.8 27.4 0.00 0.00 0.00 1 1018.2
20260507133725 15 175 4.8 27.4 0.00 0.00 0.00 1 1018.2
20260507133604 15 177 4.8 27.4 0.00 0.00 0.00 1 1018.3
20260507133525 15 178 4.8 27.4 0.00 0.00 0.00 1 1018.2
20260507133404 15 178 4.8 27.4 0.00 0.00 0.00 1 1018.2
20260507133304 15 179 4.8 27.4 0.00 0.00 0.00 1 1018.2
20260507133204 16 180 4.8 29.0 0.00 0.00 0.00 1 1018.2
20260507133104 16 188 4.8 29.0 0.00 0.00 0.00 1 1018.2
20260507133025 16 190 6.4 29.0 0.00 0.00 0.00 1 1018.2
20260507132925 16 193 6.4 29.0 0.00 0.00 0.00 1 1018.2
20260507132804 15 193 8.0 29.0 0.00 0.00 0.00 1 1018.2
20260507132704 15 191 9.7 29.0 0.00 0.00 0.00 1 1018.2
20260507132604 15 193 9.7 29.0 0.00 0.00 0.00 1 1018.3
20260507132525 15 192 11.3 29.0 0.00 0.00 0.00 1 1018.2
20260507132425 15 194 12.9 29.0 0.00 0.00 0.00 1 1018.2
20260507132307 15 193 14.5 29.0 0.00 0.00 0.00 1 1018.2
20260507132205 15 192 14.5 29.0 0.00 0.00 0.00 1 1018.2
20260507132125 15 191 14.5 29.0 0.00 0.00 0.00 1 1018.3
20260507132004 15 188 14.5 29.0 0.00 0.00 0.00 1 1018.3
20260507131905 15 187 14.5 29.0 0.00 0.00 0.00 1 1018.3
20260507131825 15 186 14.5 29.0 0.00 0.00 0.00 1 1018.4
20260507131704 15 186 12.9 29.0 0.00 0.00 0.00 1 1018.4
20260507131604 15 184 12.9 29.0 0.00 0.00 0.00 1 1018.4
20260507131504 15 183 12.9 29.0 0.00 0.00 0.00 1 1018.5
20260507131404 15 179 11.3 29.0 0.00 0.00 0.00 1 1018.5
20260507131304 15 180 9.7 27.4 0.00 0.00 0.00 1 1018.6
20260507131204 15 182 9.7 25.7 0.00 0.00 0.00 1 1018.6
20260507131104 15 181 9.7 25.7 0.00 0.00 0.00 1 1018.6
20260507131004 15 182 11.3 25.7 0.00 0.00 0.00 1 1018.6
20260507130904 15 183 11.3 25.7 0.00 0.00 0.00 1 1018.6
20260507130804 15 185 11.3 25.7 0.00 0.00 0.00 1 1018.6
20260507130704 15 185 11.3 25.7 0.00 0.00 0.00 1 1018.6
20260507130604 15 186 11.3 25.7 0.00 0.00 0.00 1 1018.5
20260507130504 15 186 12.9 27.4 0.00 0.00 0.00 1 1018.4
20260507130404 15 186 12.9 27.4 0.00 0.00 0.00 1 1018.4
20260507130304 15 186 11.3 27.4 0.00 0.00 0.00 1 1018.3
20260507130204 15 185 9.7 27.4 0.00 0.00 0.00 1 1018.2
20260507130104 15 185 9.7 27.4 0.00 0.00 0.00 1 1018.1
20260507130004 15 184 9.7 27.4 0.00 0.00 0.00 1 1018.1
20260507125904 15 183 9.7 27.4 0.00 0.00 0.00 1 1018.1
20260507125804 15 180 8.0 27.4 0.00 0.00 0.00 1 1018.1
20260507125704 15 180 8.0 27.4 0.00 0.00 0.00 1 1018.2
20260507125604 15 180 8.0 27.4 0.00 0.00 0.00 1 1018.3
20260507125504 15 178 8.0 24.1 0.00 0.00 0.00 1 1018.3
20260507125404 15 181 9.7 24.1 0.00 0.00 0.00 1 1018.3
20260507125306 15 183 11.3 24.1 0.00 0.00 0.00 1 1018.4
20260507125204 15 186 11.3 24.1 0.00 0.00 0.00 1 1018.4
20260507125104 15 185 12.9 24.1 0.00 0.00 0.00 1 1018.5
20260507125025 15 185 12.9 24.1 0.00 0.00 0.00 1 1018.5
20260507124904 15 186 12.9 24.1 0.00 0.00 0.00 1 1018.5
20260507124804 15 187 11.3 24.1 0.00 0.00 0.00 1 1018.4
20260507124704 15 188 12.9 24.1 0.00 0.00 0.00 1 1018.4
20260507124604 15 188 11.3 24.1 0.00 0.00 0.00 1 1018.4
20260507124504 15 188 11.3 24.1 0.00 0.00 0.00 1 1018.4
20260507124404 15 183 11.3 24.1 0.00 0.00 0.00 1 1018.5
20260507124304 15 179 11.3 24.1 0.00 0.00 0.00 1 1018.6
20260507124204 15 175 11.3 24.1 0.00 0.00 0.00 1 1018.5
20260507124104 15 174 11.3 24.1 0.00 0.00 0.00 1 1018.5
20260507124004 15 173 12.9 25.7 0.00 0.00 0.00 1 1018.4
20260507123904 15 172 12.9 25.7 0.00 0.00 0.00 1 1018.3
20260507123804 15 169 14.5 25.7 0.00 0.00 0.00 1 1018.3
20260507123704 15 169 14.5 25.7 0.00 0.00 0.00 1 1018.3
20260507123604 15 168 12.9 25.7 0.00 0.00 0.00 1 1018.3
20260507123504 15 167 12.9 25.7 0.00 0.00 0.00 1 1018.3
20260507123404 15 169 14.5 25.7 0.00 0.00 0.00 1 1018.3
20260507123304 15 171 12.9 25.7 0.00 0.00 0.00 1 1018.3
20260507123204 15 171 11.3 25.7 0.00 0.00 0.00 1 1018.3
20260507123125 15 171 11.3 25.7 0.00 0.00 0.00 1 1018.3
20260507123004 15 173 11.3 24.1 0.00 0.00 0.00 1 1018.3
20260507122904 15 174 9.7 24.1 0.00 0.00 0.00 1 1018.3
20260507122804 15 176 9.7 24.1 0.00 0.00 0.00 1 1018.3
20260507122705 15 175 9.7 24.1 0.00 0.00 0.00 1 1018.3
20260507122604 15 176 9.7 24.1 0.00 0.00 0.00 1 1018.3
20260507122504 15 178 9.7 24.1 0.00 0.00 0.00 1 1018.3
20260507122404 15 180 9.7 24.1 0.00 0.00 0.00 1 1018.2
20260507122325 15 178 9.7 24.1 0.00 0.00 0.00 1 1018.2
20260507122205 15 179 11.3 20.9 0.00 0.00 0.00 1 1018.1
20260507122104 15 178 11.3 25.7 0.00 0.00 0.00 1 1018.0
20260507122004 15 179 11.3 25.7 0.00 0.00 0.00 1 1018.0
20260507121904 15 180 9.7 25.7 0.00 0.00 0.00 1 1017.9
20260507121804 15 180 9.7 25.7 0.00 0.00 0.00 1 1017.9
20260507121704 15 182 9.7 25.7 0.00 0.00 0.00 1 1017.9
20260507121604 15 183 9.7 25.7 0.00 0.00 0.00 1 1017.8
20260507121504 15 183 9.7 25.7 0.00 0.00 0.00 1 1017.8
20260507121425 15 182 9.7 25.7 0.00 0.00 0.00 1 1017.7
20260507121304 15 181 8.0 25.7 0.00 0.00 0.00 1 1017.6
20260507121225 15 181 8.0 25.7 0.00 0.00 0.00 1 1017.5
20260507121104 15 181 6.4 20.9 0.00 0.00 0.00 1 1017.5
20260507121004 15 183 4.8 17.7 0.00 0.00 0.00 1 1017.5
20260507120904 15 181 4.8 17.7 0.00 0.00 0.00 1 1017.4
20260507120804 15 183 3.2 17.7 0.00 0.00 0.00 1 1017.5
20260507120704 15 178 3.2 17.7 0.00 0.00 0.00 1 1017.5
20260507120604 15 171 1.6 17.7 0.00 0.00 0.00 1 1017.5
20260507120525 15 163 1.6 17.7 0.00 0.00 0.00 1 1017.7
20260507120425 15 163 3.2 17.7 0.00 0.00 0.00 1 1017.8
20260507120304 15 168 4.8 25.7 0.00 0.00 0.00 1 1017.8
20260507120204 15 166 6.4 25.7 0.00 0.00 0.00 1 1017.9
20260507120104 15 171 8.0 25.7 0.00 0.00 0.00 1 1017.9
20260507120025 15 173 9.7 25.7 0.00 0.00 0.00 1 1017.9
20260507115904 15 173 11.3 25.7 0.00 0.00 0.00 1 1017.9
20260507115804 15 172 11.3 25.7 0.00 0.00 0.00 1 1017.9
20260507115704 15 171 12.9 25.7 0.00 0.00 0.00 1 1017.8
20260507115604 15 171 14.5 25.7 0.00 0.00 0.00 1 1017.7
20260507115504 15 172 14.5 25.7 0.00 0.00 0.00 1 1017.5
20260507115404 15 171 12.9 24.1 0.00 0.00 0.00 1 1017.5
20260507115307 15 171 12.9 24.1 0.00 0.00 0.00 1 1017.5
20260507115225 15 173 12.9 24.1 0.00 0.00 0.00 1 1017.5
20260507115104 15 171 12.9 24.1 0.00 0.00 0.00 1 1017.5
20260507115004 15 170 12.9 24.1 0.00 0.00 0.00 1 1017.6
20260507114904 15 171 12.9 27.4 0.00 0.00 0.00 1 1017.6
20260507114804 15 172 12.9 27.4 0.00 0.00 0.00 1 1017.6
20260507114704 15 174 12.9 27.4 0.00 0.00 0.00 1 1017.5
20260507114604 15 174 11.3 27.4 0.00 0.00 0.00 1 1017.5
20260507114504 15 174 11.3 27.4 0.00 0.00 0.00 1 1017.5
20260507114404 15 177 11.3 27.4 0.00 0.00 0.00 1 1017.4
20260507114304 15 177 11.3 27.4 0.00 0.00 0.00 1 1017.4
20260507114204 15 173 11.3 27.4 0.00 0.00 0.00 1 1017.3
20260507114125 15 174 11.3 27.4 0.00 0.00 0.00 1 1017.3
20260507114004 15 178 12.9 27.4 0.00 0.00 0.00 1 1017.3
20260507113904 15 176 12.9 24.1 0.00 0.00 0.00 1 1017.3
20260507113804 15 175 12.9 24.1 0.00 0.00 0.00 1 1017.3
20260507113704 15 174 12.9 24.1 0.00 0.00 0.00 1 1017.3
20260507113604 15 173 12.9 24.1 0.00 0.00 0.00 1 1017.4
20260507113504 15 172 12.9 24.1 0.00 0.00 0.00 1 1017.3
20260507113404 15 172 12.9 25.7 0.00 0.00 0.00 1 1017.3
20260507113325 15 172 12.9 25.7 0.00 0.00 0.00 1 1017.3
20260507113225 15 175 12.9 25.7 0.00 0.00 0.00 1 1017.4
20260507113104 15 175 11.3 27.4 0.00 0.00 0.00 1 1017.4
20260507113004 15 171 11.3 27.4 0.00 0.00 0.00 1 1017.4
20260507112904 15 171 11.3 27.4 0.00 0.00 0.00 1 1017.4
20260507112804 15 171 11.3 27.4 0.00 0.00 0.00 1 1017.3
20260507112725 15 173 11.3 27.4 0.00 0.00 0.00 1 1017.2
20260507112625 15 173 12.9 27.4 0.00 0.00 0.00 1 1017.2
20260507112525 15 176 12.9 27.4 0.00 0.00 0.00 1 1017.2
20260507112404 15 173 12.9 27.4 0.00 0.00 0.00 1 1017.3
20260507112307 15 172 12.9 27.4 0.00 0.00 0.00 1 1017.3
20260507112204 15 171 12.9 27.4 0.00 0.00 0.00 1 1017.4
20260507112125 15 171 14.5 25.7 0.00 0.00 0.00 1 1017.3
20260507112004 15 170 14.5 25.7 0.00 0.00 0.00 1 1017.3
20260507111905 15 171 14.5 25.7 0.00 0.00 0.00 1 1017.3
20260507111805 15 171 14.5 25.7 0.00 0.00 0.00 1 1017.2
20260507111704 15 171 14.5 25.7 0.00 0.00 0.00 1 1017.2
20260507111604 15 171 14.5 24.1 0.00 0.00 0.00 1 1017.2
20260507111506 15 171 14.5 24.1 0.00 0.00 0.00 1 1017.1
20260507111404 15 174 14.5 24.1 0.00 0.00 0.00 1 1017.1
20260507111304 15 174 14.5 24.1 0.00 0.00 0.00 1 1017.1
20260507111225 15 175 14.5 24.1 0.00 0.00 0.00 1 1017.1
20260507111104 15 176 14.5 24.1 0.00 0.00 0.00 1 1017.0
20260507111004 15 177 14.5 24.1 0.00 0.00 0.00 1 1017.1
20260507110904 15 177 14.5 24.1 0.00 0.00 0.00 1 1017.1
20260507110804 15 177 12.9 25.7 0.00 0.00 0.00 1 1017.2
20260507110704 15 176 12.9 25.7 0.00 0.00 0.00 1 1017.3
20260507110604 15 175 11.3 25.7 0.00 0.00 0.00 1 1017.3
20260507110504 15 175 11.3 25.7 0.00 0.00 0.00 1 1017.3
20260507110425 15 173 9.7 25.7 0.00 0.00 0.00 1 1017.3
20260507110325 15 169 9.7 25.7 0.00 0.00 0.00 1 1017.3
20260507110204 15 165 9.7 25.7 0.00 0.00 0.00 1 1017.4
20260507110104 15 163 11.3 25.7 0.00 0.00 0.00 1 1017.5
20260507110004 15 164 11.3 25.7 0.00 0.00 0.00 1 1017.6
20260507105904 15 163 9.7 25.7 0.00 0.00 0.00 1 1017.7
20260507105804 15 161 9.7 25.7 0.00 0.00 0.00 1 1017.7
20260507105704 15 161 11.3 25.7 0.00 0.00 0.00 1 1017.6
20260507105604 15 162 11.3 25.7 0.00 0.00 0.00 1 1017.7
20260507105504 15 161 11.3 25.7 0.00 0.00 0.00 1 1017.6
20260507105425 15 161 9.7 25.7 0.00 0.00 0.00 1 1017.5
20260507105306 15 163 9.7 25.7 0.00 0.00 0.00 1 1017.6
20260507105204 15 163 8.0 25.7 0.00 0.00 0.00 1 1017.5
20260507105104 15 164 8.0 20.9 0.00 0.00 0.00 1 1017.6
20260507105025 15 165 8.0 20.9 0.00 0.00 0.00 1 1017.5
20260507104904 15 165 8.0 20.9 0.00 0.00 0.00 1 1017.5
20260507104804 15 165 8.0 20.9 0.00 0.00 0.00 1 1017.6
20260507104704 15 167 9.7 24.1 0.00 0.00 0.00 1 1017.6
20260507104604 15 168 9.7 24.1 0.00 0.00 0.00 1 1017.5
20260507104504 15 169 8.0 24.1 0.00 0.00 0.00 1 1017.5
20260507104404 15 173 9.7 24.1 0.00 0.00 0.00 1 1017.4
20260507104304 15 176 11.3 24.1 0.00 0.00 0.00 1 1017.3
20260507104204 15 176 12.9 24.1 0.00 0.00 0.00 1 1017.3
20260507104104 15 176 12.9 24.1 0.00 0.00 0.00 1 1017.2
20260507104004 15 176 12.9 24.1 0.00 0.00 0.00 1 1017.1
20260507103904 15 179 11.3 24.1 0.00 0.00 0.00 1 1017.0
20260507103804 15 181 11.3 24.1 0.00 0.00 0.00 1 1016.9
20260507103704 15 181 11.3 20.9 0.00 0.00 0.00 1 1016.8
20260507103604 15 182 11.3 20.9 0.00 0.00 0.00 1 1016.7
20260507103504 15 182 11.3 20.9 0.00 0.00 0.00 1 1016.6
20260507103404 15 181 11.3 20.9 0.00 0.00 0.00 1 1016.6
20260507103325 15 180 9.7 19.3 0.00 0.00 0.00 1 1016.6
20260507103204 15 179 9.7 19.3 0.00 0.00 0.00 1 1016.7
20260507103104 15 178 9.7 19.3 0.00 0.00 0.00 1 1016.8
20260507103004 15 178 9.7 19.3 0.00 0.00 0.00 1 1016.9
20260507102904 15 177 9.7 16.1 0.00 0.00 0.00 1 1016.9
20260507102804 15 178 9.7 16.1 0.00 0.00 0.00 1 1017.0
20260507102704 15 180 9.7 16.1 0.00 0.00 0.00 1 1017.1
20260507102604 15 182 9.7 19.3 0.00 0.00 0.00 1 1017.1
20260507102526 15 182 9.7 19.3 0.00 0.00 0.00 1 1017.2
20260507102404 15 181 9.7 27.4 0.00 0.00 0.00 1 1017.2
20260507102306 15 179 11.3 27.4 0.00 0.00 0.00 1 1017.3
20260507102204 15 179 11.3 27.4 0.00 0.00 0.00 1 1017.2
20260507102125 15 181 11.3 27.4 0.00 0.00 0.00 1 1017.2
20260507102006 15 181 11.3 27.4 0.00 0.00 0.00 1 1017.1
20260507101904 15 181 11.3 27.4 0.00 0.00 0.00 1 1017.1
20260507101804 15 180 12.9 27.4 0.00 0.00 0.00 1 1017.0
20260507101725 15 178 12.9 27.4 0.00 0.00 0.00 1 1016.9
20260507101604 15 177 12.9 27.4 0.00 0.00 0.00 1 1016.9
20260507101504 15 179 12.9 27.4 0.00 0.00 0.00 1 1016.9
20260507101425 15 180 12.9 27.4 0.00 0.00 0.00 1 1016.9
20260507101304 15 183 12.9 24.1 0.00 0.00 0.00 1 1016.9
20260507101204 15 184 12.9 24.1 0.00 0.00 0.00 1 1016.9
20260507101125 15 181 12.9 24.1 0.00 0.00 0.00 1 1017.0
20260507101004 15 182 12.9 24.1 0.00 0.00 0.00 1 1016.9
20260507100904 15 183 12.9 24.1 0.00 0.00 0.00 1 1016.9
20260507100804 15 184 11.3 22.5 0.00 0.00 0.00 1 1016.8
20260507100704 15 183 11.3 20.9 0.00 0.00 0.00 1 1016.6
20260507100604 15 182 11.3 20.9 0.00 0.00 0.00 1 1016.6
20260507100525 15 182 11.3 20.9 0.00 0.00 0.00 1 1016.7
20260507100425 15 180 11.3 20.9 0.00 0.00 0.00 1 1016.7
20260507100304 15 180 11.3 22.5 0.00 0.00 0.00 1 1016.7
20260507100204 15 179 9.7 22.5 0.00 0.00 0.00 1 1016.7
20260507100104 15 180 9.7 22.5 0.00 0.00 0.00 1 1016.7
20260507100004 15 181 8.0 22.5 0.00 0.00 0.00 1 1016.8
20260507095904 15 180 6.4 22.5 0.00 0.00 0.00 1 1016.8
20260507095804 15 179 6.4 22.5 0.00 0.00 0.00 1 1016.8
20260507095725 15 181 4.8 22.5 0.00 0.00 0.00 1 1016.7
20260507095604 15 181 3.2 22.5 0.00 0.00 0.00 1 1016.7
20260507095504 15 184 3.2 22.5 0.00 0.00 0.00 1 1016.7
20260507095425 15 186 1.6 22.5 0.00 0.00 0.00 1 1016.6
20260507095325 15 178 1.6 9.7 0.00 0.00 0.00 1 1016.6
20260507095204 15 181 1.6 14.5 0.00 0.00 0.00 1 1016.7
20260507095104 15 174 1.6 14.5 0.00 0.00 0.00 1 1016.8
20260507095004 15 176 1.6 14.5 0.00 0.00 0.00 1 1016.8
20260507094904 15 176 1.6 14.5 0.00 0.00 0.00 1 1016.9
20260507094804 15 181 1.6 14.5 0.00 0.00 0.00 1 1016.8
20260507094704 15 183 1.6 14.5 0.00 0.00 0.00 1 1016.8
20260507094604 15 183 1.6 14.5 0.00 0.00 0.00 1 1016.8
20260507094504 15 183 1.6 14.5 0.00 0.00 0.00 1 1016.8
20260507094404 15 182 1.6 14.5 0.00 0.00 0.00 1 1016.8
20260507094304 15 181 1.6 14.5 0.00 0.00 0.00 1 1016.8
20260507094204 15 178 0.0 12.9 0.00 0.00 0.00 1 1016.8
20260507094125 15 190 0.0 11.3 0.00 0.00 0.00 1 1016.8
20260507094004 15 189 0.0 11.3 0.00 0.00 0.00 1 1016.8
20260507093904 15 188 0.0 11.3 0.00 0.00 0.00 1 1016.8
20260507093804 15 181 0.0 9.7 0.00 0.00 0.00 1 1016.7
20260507093704 15 180 0.0 9.7 0.00 0.00 0.00 1 1016.8
20260507093604 15 173 0.0 9.7 0.00 0.00 0.00 1 1016.7
20260507093504 15 176 1.6 9.7 0.00 0.00 0.00 1 1016.8
20260507093404 15 180 1.6 14.5 0.00 0.00 0.00 1 1016.8
20260507093304 15 180 1.6 14.5 0.00 0.00 0.00 1 1016.9
20260507093204 15 180 1.6 14.5 0.00 0.00 0.00 1 1017.0
20260507093104 15 178 1.6 14.5 0.00 0.00 0.00 1 1017.0
20260507093004 15 178 1.6 14.5 0.00 0.00 0.00 1 1016.9
20260507092904 15 178 1.6 14.5 0.00 0.00 0.00 1 1016.9
20260507092804 15 178 1.6 14.5 0.00 0.00 0.00 1 1016.9
20260507092704 15 178 0.0 14.5 0.00 0.00 0.00 1 1016.9
20260507092604 15 183 0.0 14.5 0.00 0.00 0.00 1 1016.9
20260507092504 15 182 0.0 14.5 0.00 0.00 0.00 1 1017.0
20260507092404 15 178 0.0 6.4 0.00 0.00 0.00 1 1017.0
20260507092307 15 177 0.0 6.4 0.00 0.00 0.00 1 1017.1
20260507092204 15 178 0.0 6.4 0.00 0.00 0.00 1 1017.1
20260507092104 15 178 0.0 6.4 0.00 0.00 0.00 1 1017.1
20260507092004 15 174 0.0 6.4 0.00 0.00 0.00 1 1017.1
20260507091904 15 174 0.0 6.4 0.00 0.00 0.00 1 1017.0
20260507091825 15 176 0.0 4.8 0.00 0.00 0.00 1 1017.0
20260507091704 15 175 0.0 4.8 0.00 0.00 0.00 1 1016.9
20260507091604 15 182 0.0 3.2 0.00 0.00 0.00 1 1016.9
20260507091504 15 174 0.0 3.2 0.00 0.00 0.00 1 1016.9
20260507091404 15 168 0.0 1.6 0.00 0.00 0.00 1 1016.8
20260507091304 15 168 0.0 1.6 0.00 0.00 0.00 1 1016.7
20260507091204 15 173 0.0 1.6 0.00 0.00 0.00 1 1016.7
20260507091104 15 173 0.0 1.6 0.00 0.00 0.00 1 1016.5
20260507091004 15 173 0.0 1.6 0.00 0.00 0.00 1 1016.5
20260507090925 15 173 0.0 1.6 0.00 0.00 0.00 1 1016.5
20260507090804 15 173 0.0 3.2 0.00 0.00 0.00 1 1016.5
20260507090704 15 173 0.0 3.2 0.00 0.00 0.00 1 1016.4
20260507090604 15 162 0.0 3.2 0.00 0.00 0.00 1 1016.4
20260507090525 15 183 0.0 3.2 0.00 0.00 0.00 1 1016.4
20260507090404 15 183 0.0 3.2 0.00 0.00 0.00 1 1016.4
20260507090304 15 183 0.0 3.2 0.00 0.00 0.00 1 1016.3
20260507090225 15 0 0.0 3.2 0.00 0.00 0.00 1 1016.3
20260507090104 15 226 0.0 3.2 0.00 0.00 0.00 1 1016.3
20260507090005 15 226 0.0 3.2 0.00 0.00 0.00 1 1016.4
20260507085904 15 226 0.0 3.2 0.00 0.00 0.00 1 1016.5
20260507085805 15 226 0.0 1.6 0.00 0.00 0.00 1 1016.5
20260507085704 15 226 0.0 1.6 0.00 0.00 0.00 1 1016.5
20260507085604 15 184 0.0 1.6 0.00 0.00 0.00 1 1016.5
20260507085504 15 190 1.6 12.9 0.00 0.00 0.00 1 1016.3
20260507085404 15 193 1.6 12.9 0.00 0.00 0.00 1 1016.2
20260507085325 15 184 1.6 12.9 0.00 0.00 0.00 1 1016.0
20260507085204 15 181 3.2 12.9 0.00 0.00 0.00 1 1016.0
20260507085104 15 179 3.2 16.1 0.00 0.00 0.00 1 1016.0
20260507085004 15 179 4.8 16.1 0.00 0.00 0.00 1 1016.1
20260507084925 15 178 4.8 16.1 0.00 0.00 0.00 1 1016.2
20260507084805 15 179 4.8 16.1 0.00 0.00 0.00 1 1016.2
20260507084704 15 179 4.8 16.1 0.00 0.00 0.00 1 1016.1
20260507084604 15 179 4.8 16.1 0.00 0.00 0.00 1 1016.2
20260507084504 15 178 4.8 16.1 0.00 0.00 0.00 1 1016.1
20260507084404 15 175 3.2 16.1 0.00 0.00 0.00 1 1016.1
20260507084304 15 178 3.2 16.1 0.00 0.00 0.00 1 1016.2
20260507084204 15 178 3.2 16.1 0.00 0.00 0.00 1 1016.2
20260507084104 15 179 1.6 14.5 0.00 0.00 0.00 1 1016.2
20260507084004 15 180 1.6 9.7 0.00 0.00 0.00 1 1016.3
20260507083904 15 187 0.0 9.7 0.00 0.00 0.00 1 1016.4
20260507083825 15 178 0.0 9.7 0.00 0.00 0.00 1 1016.3
20260507083704 15 225 0.0 1.6 0.00 0.00 0.00 1 1016.3
20260507083604 15 172 0.0 11.3 0.00 0.00 0.00 1 1016.2
20260507083504 15 189 1.6 17.7 0.00 0.00 0.00 1 1016.2
20260507083404 15 197 1.6 17.7 0.00 0.00 0.00 1 1016.2
20260507083304 15 197 1.6 17.7 0.00 0.00 0.00 1 1016.2
20260507083204 15 197 3.2 17.7 0.00 0.00 0.00 1 1016.2
20260507083104 15 197 3.2 17.7 0.00 0.00 0.00 1 1016.2
20260507083004 15 197 3.2 17.7 0.00 0.00 0.00 1 1016.2
20260507082904 15 197 3.2 17.7 0.00 0.00 0.00 1 1016.1
20260507082804 15 197 3.2 17.7 0.00 0.00 0.00 1 1016.0
20260507082704 15 196 3.2 17.7 0.00 0.00 0.00 1 1015.9
20260507082625 15 196 1.6 17.7 0.00 0.00 0.00 1 1015.8
20260507082504 15 207 1.6 17.7 0.00 0.00 0.00 1 1015.7
20260507082404 15 194 0.0 9.7 0.00 0.00 0.00 1 1015.7
20260507082306 15 197 0.0 9.7 0.00 0.00 0.00 1 1015.6
20260507082204 15 194 0.0 9.7 0.00 0.00 0.00 1 1015.7
20260507082104 15 194 0.0 6.4 0.00 0.00 0.00 1 1015.8
20260507082004 15 186 0.0 6.4 0.00 0.00 0.00 1 1015.8
20260507081904 15 195 0.0 6.4 0.00 0.00 0.00 1 1015.9
20260507081804 15 190 0.0 6.4 0.00 0.00 0.00 1 1015.9
20260507081705 15 191 0.0 6.4 0.00 0.00 0.00 1 1015.9
20260507081625 15 191 0.0 6.4 0.00 0.00 0.00 1 1015.7
20260507081504 15 191 0.0 6.4 0.00 0.00 0.00 1 1015.7
20260507081404 15 191 0.0 6.4 0.00 0.00 0.00 1 1015.7
20260507081304 15 189 0.0 6.4 0.00 0.00 0.00 1 1015.7
20260507081225 15 190 0.0 6.4 0.00 0.00 0.00 1 1015.6
20260507081104 15 188 0.0 6.4 0.00 0.00 0.00 1 1015.6
20260507081004 15 191 0.0 6.4 0.00 0.00 0.00 1 1015.6
20260507080904 15 175 0.0 4.8 0.00 0.00 0.00 1 1015.7
20260507080804 15 185 0.0 4.8 0.00 0.00 0.00 1 1015.7
20260507080704 15 193 0.0 4.8 0.00 0.00 0.00 1 1015.7
20260507080625 16 193 0.0 4.8 0.00 0.00 0.00 1 1015.9
20260507080504 16 193 0.0 4.8 0.00 0.00 0.00 1 1016.0
20260507080404 16 202 0.0 4.8 0.00 0.00 0.00 1 1016.1
20260507080304 16 202 0.0 4.8 0.00 0.00 0.00 1 1016.2
20260507080204 16 197 0.0 4.8 0.00 0.00 0.00 1 1016.1
20260507080125 16 197 0.0 4.8 0.00 0.00 0.00 1 1016.0
20260507080004 16 200 0.0 4.8 0.00 0.00 0.00 1 1015.8
20260507075904 16 200 0.0 4.8 0.00 0.00 0.00 1 1015.7
20260507075804 16 204 0.0 4.8 0.00 0.00 0.00 1 1015.5
20260507075704 16 202 0.0 4.8 0.00 0.00 0.00 1 1015.4
20260507075604 16 198 0.0 4.8 0.00 0.00 0.00 1 1015.3